GFSCGP_sfc_dewp_036.txt.gz
Dewpoint
26 23 21 21 22 18 16 21 22 23 27 26 28 41 48 49 40 40 39 40 41 43 50 51 51 54 52 51 50 51 53 53 53 54 54 55 52 53 54 61 60 62 60 59
25 25 25 23 22 18 16 16 19 21 26 23 17 33 45 48 41 38 40 42 40 41 47 49 51 52 54 53 53 55 56 56 54 56 57 56 53 52 54 61 61 62 61 58
26 26 27 22 20 18 17 17 16 19 24 22 19 16 37 41 38 39 39 43 42 40 45 48 50 51 53 54 54 54 55 56 57 57 57 55 53 53 52 59 60 60 60 59
24 25 23 21 19 16 16 16 20 22 21 15 23 19 25 30 32 37 38 40 41 42 42 47 49 51 52 54 55 54 53 53 54 56 53 53 49 48 52 58 59 59 61 60
24 24 22 23 17 17 18 23 23 22 19 22 21 20 17 23 23 31 38 40 41 41 43 43 47 50 52 54 55 55 54 54 55 56 56 55 51 51 52 58 58 59 60 60
23 22 22 23 20 19 19 23 24 24 21 23 24 18 17 20 22 25 33 39 40 41 42 43 45 48 50 53 55 56 55 54 54 56 56 57 55 55 55 57 58 59 59 60
21 20 22 22 19 21 21 22 21 20 21 25 23 19 22 24 29 33 34 36 44 41 42 42 44 45 48 50 54 55 55 54 55 56 57 57 58 56 56 57 59 58 58 56
21 19 21 21 20 19 22 22 24 23 27 26 33 23 17 24 26 23 24 38 40 40 42 43 41 46 48 50 52 53 53 54 53 55 57 58 57 58 59 59 60 59 58 55
22 19 20 21 21 21 23 22 23 23 31 31 35 29 19 21 21 19 20 25 33 31 41 42 42 43 48 51 53 55 54 53 54 55 56 57 60 60 61 61 60 59 56 52
24 22 21 21 21 23 22 21 27 26 24 25 22 23 19 24 19 18 21 25 29 34 38 40 42 44 46 48 52 56 56 54 54 55 57 58 60 60 61 60 60 58 54 52
23 26 24 24 21 19 21 22 27 29 26 29 26 23 29 28 22 23 24 27 30 34 40 41 42 43 46 47 47 54 56 55 55 56 58 60 60 59 58 60 60 56 54 54
24 27 25 22 21 22 22 24 24 27 26 30 36 26 26 30 27 28 27 27 29 33 37 41 44 45 45 47 50 55 55 56 57 58 60 60 60 61 60 59 57 56 55 53
26 24 25 24 23 24 22 21 25 29 31 30 34 27 27 25 24 24 27 26 29 32 33 41 45 46 46 48 50 52 56 57 57 58 59 60 60 59 58 57 56 55 54 53
38 27 24 25 23 26 24 21 21 28 31 31 31 28 29 28 29 27 27 28 28 31 31 35 44 47 49 51 52 53 55 57 56 56 59 59 58 58 57 56 54 49 46 44
36 28 26 24 21 22 21 20 19 20 31 30 31 30 29 28 29 32 30 32 28 30 31 36 44 48 50 52 54 54 56 57 57 56 56 56 57 57 56 55 52 49 46 44
36 29 29 28 25 20 21 20 19 19 19 19 22 22 24 26 29 32 31 28 29 30 33 38 42 49 51 53 54 55 54 55 55 54 53 53 54 52 52 51 50 49 47 45
33 33 30 28 27 24 23 23 19 19 19 21 22 25 24 23 22 23 28 26 29 35 39 43 47 50 52 52 53 51 51 51 50 49 49 49 48 47 46 44 43 43 42 41
36 33 32 31 34 24 24 22 19 20 19 21 20 19 20 21 21 29 29 32 34 39 42 45 45 46 47 48 47 48 47 47 46 45 45 46 45 43 42 40 39 39 39 39
35 36 35 31 29 25 20 23 24 25 23 23 23 22 20 19 22 33 34 37 40 41 43 44 44 44 44 44 44 43 42 42 42 42 42 42 42 41 40 39 40 40 40 40
34 39 38 36 29 26 32 28 26 25 25 26 24 26 26 27 36 34 36 40 40 41 41 41 41 41 41 41 41 40 40 40 40 41 40 41 40 40 41 42 41 41 41 39
31 37 36 35 33 31 30 27 26 26 30 33 32 30 33 35 37 38 39 40 39 39 39 40 40 40 40 40 40 39 40 39 40 40 40 40 40 41 40 40 41 40 40 40
33 36 37 37 32 30 35 28 28 34 40 38 36 38 43 38 40 39 39 38 38 38 38 39 39 39 40 40 39 38 38 39 39 40 40 40 40 39 39 39 38 37 35 35
32 36 38 37 37 40 37 34 37 40 40 39 40 37 37 41 39 39 38 38 37 37 37 38 38 39 39 39 39 37 38 39 39 38 37 35 33 31 31 32 30 30 31 31
35 34 35 34 37 39 41 39 36 35 38 35 35 37 38 41 40 39 38 37 37 36 36 37 38 38 38 38 38 38 38 36 34 32 30 30 28 27 26 21 23 28 27 28
31 39 34 34 34 35 33 35 39 39 39 39 37 38 37 41 39 38 37 37 36 36 37 37 38 38 37 36 36 35 33 32 31 29 26 26 27 24 22 21 23 24 20 23
29 29 33 34 36 41 39 37 42 41 39 38 39 37 37 41 39 38 37 37 37 36 37 37 37 36 34 33 32 31 30 29 27 26 26 29 28 25 21 22 21 24 22 21

GFSCGP_sfc_dewp_039.txt.gz
Dewpoint
29 26 23 22 23 23 21 18 19 25 30 33 38 40 36 39 47 47 44 45 50 47 52 51 51 51 50 49 50 52 51 50 49 47 47 48 49 52 54 56 60 60 60 60
27 25 25 25 24 23 23 20 17 19 29 29 37 38 37 41 46 42 41 44 48 47 49 51 51 50 49 46 46 47 47 48 49 47 45 47 54 51 53 54 60 61 61 60
25 26 26 25 25 24 22 19 18 22 25 24 24 40 43 44 44 45 40 40 45 48 49 50 51 50 48 47 46 45 45 51 49 50 48 53 55 51 52 55 58 60 58 54
27 27 26 26 26 22 18 19 19 21 24 21 21 20 41 41 41 43 40 40 42 48 49 49 51 51 49 49 50 51 52 54 52 52 53 54 54 51 49 53 58 59 59 58
27 27 26 26 24 23 20 25 29 28 25 23 22 22 23 38 39 39 41 42 43 45 48 48 49 52 52 50 51 53 54 54 53 53 54 55 53 52 50 55 58 58 59 59
26 27 25 24 25 23 21 27 28 27 25 22 22 24 25 34 36 38 40 42 42 42 45 48 49 50 52 53 52 53 53 54 54 55 55 55 55 50 49 50 58 58 59 60
24 24 24 24 24 24 22 23 22 21 22 22 31 28 27 26 30 30 38 39 42 42 42 46 48 49 50 51 52 52 52 51 52 53 54 54 54 53 51 52 57 58 58 57
22 22 23 24 23 22 22 23 26 19 23 25 31 26 27 31 34 31 38 38 39 41 41 43 46 48 50 51 52 53 53 52 53 53 54 54 55 54 53 56 57 58 59 59
24 22 23 21 22 21 21 23 24 25 34 29 32 32 33 30 28 29 29 35 36 38 41 41 43 45 47 50 51 53 53 53 53 54 54 55 55 56 58 58 59 59 59 56
27 24 24 23 22 24 22 25 25 28 26 24 29 30 29 27 25 24 22 31 34 38 40 42 42 44 45 47 50 52 52 53 53 53 54 56 57 57 59 58 56 57 55 55
23 24 25 26 22 20 24 22 28 30 31 26 23 24 30 31 29 24 18 25 29 33 36 40 44 44 45 46 47 51 52 56 56 56 55 56 58 59 58 59 59 57 54 54
25 28 23 22 26 23 22 22 24 30 27 31 31 25 29 29 30 27 24 24 28 36 38 38 40 41 43 46 49 51 53 56 54 55 57 58 59 59 58 58 57 55 53 53
26 24 22 22 21 23 21 23 25 28 32 28 26 28 30 30 30 24 24 24 29 31 37 41 42 43 44 45 49 53 56 57 56 55 56 60 60 60 58 57 57 54 54 53
40 24 22 21 22 26 26 26 24 24 28 28 29 29 31 32 31 29 31 32 29 29 34 42 44 45 45 48 52 54 56 58 59 60 59 57 57 56 56 55 54 52 51 50
41 29 23 21 24 25 25 25 26 23 26 28 30 31 31 32 30 29 33 30 31 31 29 41 45 46 49 52 54 55 56 56 58 58 57 56 56 56 54 52 50 47 47 46
41 32 30 27 22 23 23 26 26 23 24 29 29 28 31 30 31 36 31 31 29 29 32 35 47 49 51 52 54 54 54 54 55 55 55 55 55 54 54 51 49 47 45 44
40 36 29 24 29 26 24 26 24 25 24 23 27 29 29 28 30 31 31 31 30 30 35 40 49 51 52 54 53 52 51 50 51 51 50 49 48 47 46 47 47 45 43 41
36 36 34 28 30 24 26 27 26 24 23 22 21 23 24 23 25 27 29 31 31 38 43 49 50 50 51 51 50 49 48 48 47 46 46 46 44 43 41 40 39 38 39 38
40 36 33 29 27 29 30 25 24 24 22 25 23 23 23 23 25 31 32 35 40 43 45 45 46 47 46 47 46 46 45 45 45 45 44 43 42 39 38 38 37 38 38 38
39 37 34 33 27 25 30 30 27 29 24 27 29 28 28 27 27 31 36 41 43 43 43 43 43 43 44 42 43 42 42 42 42 42 42 41 40 39 40 40 40 39 39 39
31 31 30 30 29 30 32 29 32 26 27 33 31 31 33 30 34 36 41 41 42 41 41 42 41 41 40 40 40 40 40 40 41 41 41 41 40 40 40 40 39 39 38 37
31 31 32 34 29 27 37 32 28 31 34 33 33 32 33 37 38 40 40 39 39 39 40 40 40 40 40 40 40 39 39 40 40 40 40 40 40 39 39 39 38 39 38 35
32 33 33 36 35 39 36 39 41 41 39 38 34 32 36 40 39 39 38 38 38 38 38 39 39 40 40 39 39 38 39 40 40 39 39 38 38 38 38 37 33 32 32 28
34 38 35 32 33 36 35 40 41 46 43 42 36 36 40 40 40 39 38 38 38 37 37 38 39 39 38 39 38 39 39 39 38 36 34 31 29 26 23 27 26 25 24 25
36 37 36 35 35 36 36 42 45 46 45 44 42 41 38 42 39 38 38 38 37 37 38 39 39 38 38 38 38 37 35 33 31 29 26 27 25 22 22 24 22 19 22 24
33 35 35 34 37 38 37 42 43 40 47 45 43 42 40 40 40 39 38 38 37 37 38 38 38 36 35 34 33 33 32 30 27 26 26 26 25 23 20 21 21 23 22 22

GFSCGP_sfc_dewp_042.txt.gz
Dewpoint
29 26 24 23 24 23 23 22 20 20 29 35 36 35 38 46 50 47 46 45 46 51 52 52 52 51 51 51 51 52 52 53 52 51 53 52 50 49 50 51 53 57 57 59
27 25 26 27 26 25 24 22 22 20 27 30 36 36 38 44 47 50 45 46 48 51 52 51 52 50 50 50 51 51 52 52 51 51 51 50 49 49 51 51 55 59 60 59
25 26 27 27 25 24 24 23 22 17 24 26 36 34 37 39 45 45 48 45 48 51 51 50 51 50 49 49 50 51 51 50 50 49 48 47 49 52 51 51 53 56 59 59
26 26 25 26 25 24 23 26 22 19 23 20 24 20 39 38 40 42 44 43 49 49 51 50 50 50 49 48 49 50 50 49 49 49 46 45 46 47 49 52 52 56 59 59
29 28 26 25 25 26 26 28 23 25 24 23 22 20 22 38 38 39 43 41 45 48 49 50 50 50 49 47 46 46 48 47 48 49 47 46 46 48 53 51 51 55 58 58
29 29 27 27 27 27 26 25 26 27 25 22 23 22 24 36 35 37 41 40 45 48 49 50 51 50 48 47 45 45 45 45 51 49 49 49 50 52 54 51 51 53 56 58
28 29 29 27 25 26 24 23 22 21 22 22 27 28 27 29 35 38 40 41 41 47 49 49 50 51 49 47 47 47 47 48 51 52 51 51 53 55 53 51 53 54 56 56
21 23 25 26 24 24 24 23 23 19 22 21 31 24 25 30 33 35 39 41 42 42 47 48 49 51 51 48 48 49 50 51 51 52 52 52 53 54 55 53 53 57 57 58
24 22 24 24 24 24 24 22 25 24 31 27 28 29 30 31 29 31 33 39 40 42 43 47 48 49 51 52 50 50 51 52 52 53 53 53 54 55 56 54 55 56 58 58
26 24 26 23 25 24 22 24 23 27 21 23 27 27 25 28 26 29 29 38 39 41 42 43 46 49 50 51 52 52 52 51 52 53 54 54 54 55 56 56 56 57 55 56
24 24 24 26 26 22 23 22 28 27 29 24 24 24 32 30 30 30 28 26 35 37 39 42 43 47 48 50 51 53 53 53 53 55 55 54 55 56 57 57 57 57 57 56
34 26 22 21 22 25 23 22 26 25 26 29 27 24 30 30 32 30 26 23 29 32 35 39 42 44 46 47 49 51 53 54 55 55 56 57 58 57 58 58 58 57 57 57
39 34 23 22 23 25 23 23 23 30 32 28 26 26 31 31 29 29 24 24 27 36 37 39 41 42 45 45 46 47 51 53 54 56 58 59 59 59 59 59 58 58 58 57
43 38 32 24 22 24 25 22 23 25 27 25 27 26 30 30 31 30 28 29 27 32 38 40 41 43 44 47 51 48 50 53 54 55 56 56 58 59 59 59 57 57 54 53
42 37 36 35 32 24 22 24 25 24 26 25 26 29 29 30 31 32 31 29 29 29 29 41 42 44 48 53 55 55 51 53 55 55 55 54 57 58 58 55 54 53 52 51
40 36 35 32 32 27 22 21 25 24 26 26 25 26 32 32 33 32 31 30 29 28 29 38 44 46 51 54 54 55 56 56 58 58 58 57 56 55 54 52 50 48 48 47
37 35 33 28 31 28 24 23 22 28 27 27 27 30 31 30 31 32 31 31 30 30 30 32 44 48 52 54 54 54 54 55 55 56 56 55 54 53 51 50 48 47 44 43
36 34 34 29 30 26 27 26 23 26 26 26 24 24 28 29 30 30 33 32 31 31 32 41 47 51 53 53 52 51 52 51 50 51 50 50 49 49 48 46 44 41 41 40
39 35 31 28 29 30 28 28 28 26 24 27 26 24 23 25 25 28 32 32 31 33 38 45 50 51 51 50 49 49 48 47 47 48 47 46 45 44 42 40 39 38 38 38
37 37 32 31 25 26 30 30 31 30 24 26 26 27 27 27 24 26 32 35 38 44 47 48 48 49 48 46 46 46 45 45 45 43 42 41 40 39 38 38 37 37 37 37
31 31 30 29 27 32 37 35 33 27 27 33 31 30 29 29 31 29 38 42 44 45 45 45 47 47 44 44 44 43 43 42 42 41 40 40 40 39 38 38 38 38 37 36
29 29 29 31 29 27 39 37 33 38 42 43 42 33 32 33 37 39 41 42 42 42 42 43 43 42 41 42 42 41 40 41 41 40 40 40 40 39 39 38 38 38 36 33
29 32 31 32 30 39 41 41 40 43 44 44 42 42 38 37 38 40 40 41 41 41 41 41 40 40 40 40 40 39 40 40 41 40 39 39 39 39 38 38 36 35 33 31
30 36 35 36 34 36 38 39 43 41 43 44 43 43 40 40 40 39 40 40 40 39 39 39 39 39 39 39 39 40 40 40 39 38 38 36 29 29 27 26 29 28 27 27
34 37 35 35 34 36 36 38 41 38 44 44 42 44 42 42 42 42 41 40 38 38 39 39 39 39 38 39 39 38 38 37 33 30 27 25 26 25 20 19 21 23 25 25
37 36 35 32 33 31 32 36 39 38 42 44 43 44 43 42 41 40 40 39 38 39 39 38 38 37 36 36 34 34 32 30 27 25 24 24 23 23 18 18 21 25 24 25

GFSCGP_sfc_dewp_045.txt.gz
Dewpoint
28 25 24 24 24 23 23 23 21 21 22 30 33 34 36 46 50 48 48 47 50 51 52 52 51 52 52 53 53 53 54 55 55 54 53 53 51 50 49 50 52 53 55 57
27 24 26 26 26 25 24 23 22 23 23 27 30 34 37 44 49 49 46 47 45 51 51 52 51 51 51 52 51 52 52 53 52 52 51 51 50 50 49 50 51 55 56 56
28 26 28 26 26 25 24 24 23 22 22 31 34 30 37 38 45 49 49 46 45 48 51 51 51 50 50 50 51 51 51 52 52 52 51 48 49 50 49 49 51 52 56 57
28 28 26 27 24 25 23 25 25 26 22 21 27 22 24 37 39 44 46 47 46 48 51 51 51 50 49 50 51 51 51 51 51 51 49 49 48 46 46 47 49 51 55 57
31 27 26 25 24 26 25 28 27 27 22 23 22 19 20 38 37 40 42 45 46 48 50 51 50 51 50 50 50 51 51 51 50 50 49 48 47 48 48 50 51 52 54 57
30 29 27 26 27 27 28 28 26 27 25 22 22 21 21 32 34 36 39 42 44 47 50 51 50 50 50 49 49 49 50 50 50 50 49 47 48 46 48 50 51 52 53 56
27 29 30 30 27 29 27 23 21 19 21 21 24 27 26 26 33 36 37 40 43 47 49 50 50 50 50 48 48 48 48 49 49 49 49 48 46 47 47 50 51 52 53 54
21 21 27 30 28 26 26 24 23 18 21 19 30 26 25 30 30 32 37 38 41 45 48 49 50 50 50 48 46 47 46 47 48 48 48 49 49 48 48 50 53 54 53 54
23 21 24 26 26 27 26 23 25 23 28 25 25 27 28 31 30 31 34 40 41 43 47 48 49 50 50 49 47 46 45 45 46 46 50 49 49 50 50 52 54 54 54 56
26 23 26 25 25 26 24 25 22 26 20 22 24 27 24 24 24 28 30 33 39 42 45 48 49 50 51 50 48 48 46 45 45 46 48 51 51 51 52 54 55 54 54 56
25 25 24 25 25 22 23 23 26 25 26 19 18 21 31 27 28 28 28 31 39 41 43 45 48 49 50 51 50 48 48 47 48 50 51 52 52 53 54 55 55 55 55 56
38 29 24 22 24 24 25 24 25 23 22 28 25 21 28 30 31 32 32 30 28 39 40 43 44 47 49 50 51 51 50 49 51 52 53 54 55 55 56 57 57 57 57 57
36 35 27 23 23 25 22 22 23 29 29 23 24 21 30 29 30 30 28 26 25 31 36 39 42 43 47 49 50 51 53 53 52 53 54 55 56 56 56 56 57 57 57 58
42 37 35 32 33 35 31 28 23 25 25 24 24 24 26 30 30 30 29 28 25 27 35 37 38 42 44 47 48 50 51 53 54 54 54 55 56 56 56 57 57 57 58 57
39 32 36 35 32 31 30 32 30 24 23 23 24 26 26 29 30 30 32 30 29 27 33 38 40 41 43 45 46 47 48 51 53 54 55 55 56 57 57 57 58 58 57 57
40 30 35 31 30 29 28 29 29 28 24 26 25 25 30 30 32 31 32 32 29 29 29 33 40 42 45 48 49 51 49 51 53 53 55 55 55 56 57 56 54 53 52 51
37 35 32 26 31 28 23 30 28 27 24 27 25 27 28 31 32 32 31 32 31 30 30 30 38 42 45 51 53 53 54 55 54 54 55 55 55 55 53 52 51 50 48 46
34 33 32 28 29 19 19 30 25 29 26 25 26 27 30 30 30 32 34 33 33 32 31 31 31 44 49 53 52 53 54 55 56 56 55 55 53 51 50 49 47 45 45 44
36 33 29 24 25 25 21 26 30 32 33 32 26 26 26 25 26 25 30 34 34 34 33 32 33 46 52 52 51 52 51 52 53 52 51 51 50 49 47 45 43 41 41 41
37 35 27 30 22 17 13 29 33 38 32 35 39 32 28 27 25 26 27 31 34 35 35 43 49 51 51 50 50 50 48 49 50 49 47 48 47 46 43 41 40 38 38 38
32 32 30 30 28 27 32 35 39 32 31 40 42 41 38 30 27 29 30 30 37 40 46 49 50 50 49 48 48 47 46 46 45 44 43 42 42 42 39 38 37 37 37 36
29 29 28 30 29 25 35 41 34 39 40 42 43 42 41 41 37 36 34 38 43 44 46 48 47 46 46 46 46 45 43 42 41 41 40 39 39 38 38 37 37 37 35 33
27 28 28 30 29 35 41 41 41 41 42 43 44 42 43 41 37 38 39 41 42 44 44 45 44 42 42 43 44 41 41 41 40 40 39 39 38 38 38 37 36 34 33 32
31 33 32 32 31 32 34 38 40 41 44 42 42 43 43 41 40 39 40 41 41 41 41 41 41 40 40 40 41 41 41 40 39 38 37 34 32 30 30 29 32 31 32 31
28 32 31 30 33 35 35 37 40 41 43 42 43 42 43 44 42 40 40 40 40 39 40 40 40 39 39 39 39 40 40 38 34 30 29 28 25 24 23 24 25 25 26 29
37 35 33 30 39 39 37 37 40 41 39 41 43 41 41 42 43 42 42 41 40 40 39 38 38 38 37 36 34 34 34 32 29 27 26 24 22 21 20 20 21 26 27 27

GFSCGP_sfc_dewp_051.txt.gz
Dewpoint
33 28 24 24 26 22 21 20 20 21 21 22 23 24 25 36 50 50 50 50 51 51 52 51 52 55 54 56 56 57 57 57 57 57 56 56 56 55 56 57 57 57 55 55
29 29 28 26 26 23 22 21 20 21 22 23 23 24 29 38 46 49 50 50 50 51 52 51 51 53 54 55 55 56 57 57 57 57 57 56 55 53 54 56 58 57 57 56
28 28 28 26 25 24 24 23 23 20 23 24 28 26 25 32 41 46 50 50 50 49 51 51 51 52 53 54 55 55 56 56 56 57 56 55 53 51 50 52 55 56 57 55
29 29 26 25 24 25 23 25 24 22 21 15 27 21 25 25 29 38 41 49 50 49 50 51 51 51 52 53 54 54 56 56 56 57 55 53 52 51 50 50 52 52 55 57
27 30 27 25 23 26 23 27 25 24 23 24 24 23 24 27 27 29 34 42 48 49 50 51 52 51 51 53 53 54 55 55 56 55 55 53 53 52 52 51 51 51 53 54
26 31 29 26 27 26 28 25 27 28 27 24 25 23 21 21 25 28 30 35 43 48 48 50 52 52 51 51 52 53 53 54 54 55 54 54 53 52 51 50 50 50 50 54
29 28 29 29 27 28 26 26 20 21 23 22 24 22 23 25 25 29 29 29 37 47 48 49 51 51 51 50 50 51 52 52 54 54 54 54 54 53 52 52 51 52 52 53
21 22 28 31 29 27 27 25 23 18 21 19 25 22 21 28 28 29 30 33 36 42 48 49 50 51 51 51 51 51 52 52 53 54 53 53 53 52 52 52 52 53 53 53
24 20 26 30 31 28 27 25 27 25 26 24 24 24 25 27 29 30 31 32 33 36 44 48 50 51 52 51 51 52 52 52 52 53 54 54 53 52 52 53 53 54 54 53
27 22 24 25 28 29 27 28 24 26 19 18 21 23 21 25 26 29 30 31 31 34 42 47 50 51 52 52 51 52 52 51 52 53 53 53 53 53 53 53 53 53 54 54
27 26 25 25 24 23 25 25 26 26 26 20 20 21 31 29 29 29 29 32 34 35 40 46 49 51 51 52 51 51 51 51 52 53 54 54 54 54 53 53 52 52 52 52
37 28 24 21 25 26 24 25 27 26 22 27 27 22 28 31 32 31 32 34 34 35 36 43 48 50 51 51 51 50 51 50 52 52 53 54 54 53 53 53 53 54 53 53
38 32 28 25 26 33 32 33 32 32 28 25 25 21 26 29 30 31 32 33 33 34 31 40 46 49 50 51 51 50 51 50 51 51 52 53 53 54 52 53 53 54 54 54
40 34 30 25 27 33 30 28 28 29 29 27 26 26 25 28 29 29 30 33 32 34 32 32 42 47 49 50 51 51 51 51 50 49 50 51 52 52 53 53 53 54 54 54
36 28 31 28 30 32 30 27 26 26 27 25 24 27 29 30 31 31 31 31 31 32 32 32 36 42 46 49 51 52 52 52 51 49 49 50 51 52 52 53 54 54 54 54
33 29 33 31 33 31 29 28 27 26 26 26 29 28 31 32 30 30 31 31 31 32 33 33 34 37 43 46 49 51 52 53 52 51 50 50 51 51 52 52 53 54 55 55
29 33 30 24 30 27 24 27 26 24 23 25 21 21 31 31 31 34 33 32 32 33 34 34 34 35 39 43 47 49 51 53 53 52 52 52 52 52 54 53 53 54 55 56
30 32 31 28 28 19 19 27 26 26 26 25 26 30 30 32 37 39 39 32 32 34 35 36 36 36 38 43 44 47 48 51 53 53 53 53 53 53 54 54 54 56 56 56
32 33 30 27 25 23 21 21 20 23 18 30 34 36 37 38 40 38 35 34 37 38 36 35 36 37 38 40 45 46 47 49 50 52 53 54 54 54 55 55 52 49 48 46
36 34 33 30 22 19 21 32 36 33 22 34 37 35 35 38 36 37 41 42 43 43 43 38 35 37 37 38 48 49 49 50 50 50 52 54 55 53 52 48 46 43 42 40
30 32 29 30 27 26 28 29 34 24 23 33 37 36 38 37 38 39 43 43 43 41 40 38 38 39 43 48 50 51 53 53 53 52 52 51 51 48 45 42 41 39 36 34
26 27 28 29 28 23 30 37 31 31 38 37 37 38 40 40 40 40 42 42 41 41 43 45 46 47 49 51 51 51 49 48 48 46 45 44 43 43 41 39 37 36 34 32
28 30 29 30 29 32 35 37 40 39 39 40 40 39 40 39 39 42 43 43 41 41 43 45 46 46 47 48 47 45 44 45 43 42 41 42 41 38 38 36 35 34 33 31
31 32 30 30 30 31 32 34 40 38 41 41 41 41 40 41 42 43 43 42 41 41 41 42 43 43 43 44 45 44 44 43 41 38 37 36 35 34 35 34 34 33 32 31
29 32 31 30 31 34 34 39 38 37 37 37 37 40 38 39 39 42 42 39 39 39 39 39 39 39 39 39 39 40 40 38 36 34 33 32 31 30 30 30 31 31 32 32
32 31 32 29 36 36 36 38 37 35 34 34 33 34 32 33 33 35 32 32 32 31 32 32 32 33 33 34 33 34 35 34 34 32 31 31 30 30 29 27 27 30 29 28

GFSCGP_sfc_dewp_054.txt.gz
Dewpoint
32 26 22 18 20 19 16 17 14 12 17 20 21 20 21 26 35 41 43 46 47 47 49 51 53 53 55 57 57 58 57 57 58 57 58 58 57 56 57 56 57 58 53 53
32 28 24 23 21 19 18 17 15 14 19 19 14 18 21 26 33 39 41 44 47 47 49 50 52 53 54 55 57 58 57 58 57 57 58 57 57 54 55 55 56 57 58 53
26 22 26 26 23 21 20 18 18 17 19 20 20 18 19 23 32 37 41 43 45 47 48 50 51 53 55 55 56 57 57 57 57 57 58 57 57 57 55 54 54 56 57 53
22 20 25 26 22 21 19 20 21 19 19 11 20 15 17 21 21 30 35 44 45 47 48 49 51 52 53 54 56 57 57 57 57 58 57 56 54 53 54 54 53 54 57 56
25 22 23 23 23 21 20 21 23 22 21 18 17 16 15 18 21 20 22 33 43 46 48 49 50 52 52 53 55 55 56 57 57 57 56 55 54 53 53 53 54 56 57 56
23 25 23 22 22 23 23 23 23 24 21 20 16 16 12 14 20 20 20 25 36 43 47 49 51 52 52 53 54 54 55 56 56 56 56 55 55 53 53 53 52 54 55 57
24 22 28 28 20 25 23 23 19 18 19 18 17 19 18 22 22 23 23 22 34 42 46 48 50 51 51 53 53 54 53 54 56 56 56 56 55 55 54 53 52 52 53 54
14 18 24 28 25 23 24 22 19 15 19 16 23 21 20 23 25 26 24 27 31 40 46 47 49 51 52 53 53 53 53 53 55 56 56 56 56 55 54 54 52 52 51 52
15 14 24 27 28 24 25 25 24 21 26 24 22 22 23 22 22 24 25 27 29 34 43 45 47 51 52 53 53 53 52 52 53 55 57 57 57 56 55 55 55 53 53 52
23 19 22 26 28 28 27 26 25 25 19 18 17 21 20 21 21 22 23 26 26 28 34 40 46 50 52 53 53 54 53 51 52 54 55 55 56 57 56 56 56 55 56 56
24 26 25 26 26 25 26 26 25 24 23 20 18 19 25 25 29 30 28 26 29 32 35 40 45 48 51 52 53 54 53 52 52 53 55 55 56 56 57 57 56 56 56 56
25 27 24 21 26 26 25 25 25 23 23 25 28 21 26 28 27 28 29 29 30 32 34 37 45 49 50 52 52 53 53 52 52 53 54 56 56 55 56 57 57 58 57 56
35 25 19 19 22 26 26 28 28 29 29 25 28 23 24 26 26 27 29 29 30 30 31 33 41 47 49 50 51 52 53 53 53 52 53 55 56 56 57 56 56 55 55 55
38 30 24 16 19 25 29 28 27 28 28 25 24 23 25 26 25 26 28 30 30 31 31 31 33 42 47 49 51 52 52 54 53 52 53 53 55 56 56 56 55 55 54 54
35 28 26 25 25 24 25 25 25 24 26 25 24 22 23 23 21 27 30 31 30 29 30 32 33 34 40 47 50 51 52 53 53 52 52 53 55 54 54 54 54 54 55 54
32 24 26 22 21 26 25 23 22 22 22 22 23 23 24 22 22 23 24 26 30 31 30 31 32 33 35 41 47 49 51 52 53 52 52 52 53 53 54 53 54 54 54 53
28 32 25 17 26 23 19 23 22 22 21 20 17 18 18 20 23 26 27 31 35 36 35 33 33 35 36 39 46 48 50 52 52 52 51 51 52 52 53 53 52 53 54 54
27 33 32 24 29 17 15 24 23 22 20 18 17 19 26 30 34 36 37 37 39 40 42 42 41 39 36 37 39 43 44 49 52 52 51 51 51 51 52 52 52 53 54 54
30 30 30 26 23 19 19 15 17 19 12 24 25 27 28 30 34 32 38 38 40 43 43 43 42 42 42 37 37 41 42 45 49 51 51 51 52 52 52 53 54 55 55 56
30 31 30 29 20 18 19 27 30 29 19 29 30 31 32 33 32 31 37 40 42 42 43 42 43 43 41 37 37 39 42 44 46 49 50 51 52 53 53 54 56 52 49 42
29 30 28 26 27 23 24 23 29 26 29 33 32 32 33 35 36 39 40 41 41 42 42 43 45 46 44 42 43 41 43 44 45 48 50 52 53 54 55 50 46 41 38 36
26 26 28 26 25 24 27 29 27 38 37 35 35 35 37 39 39 40 41 41 42 41 41 43 45 46 48 49 49 46 46 52 53 52 51 49 48 45 44 42 40 39 36 34
28 26 26 25 25 32 34 36 36 39 39 39 40 40 41 40 40 41 41 42 41 40 40 41 43 44 45 46 49 49 48 48 47 45 43 42 40 39 39 40 38 35 34 33
26 29 30 29 28 28 29 34 39 39 39 38 38 39 41 42 41 40 40 40 39 36 37 37 39 39 38 39 40 44 44 43 41 39 38 37 37 37 37 36 35 34 32 31
25 28 29 27 26 26 29 37 39 37 38 37 36 35 37 36 37 36 37 35 34 33 32 32 32 33 34 36 36 37 38 38 36 35 34 34 32 31 30 30 31 31 32 32
25 26 29 26 34 35 35 36 37 37 36 35 34 33 33 33 32 32 32 32 31 31 32 30 30 30 29 29 32 35 37 37 34 32 32 31 30 29 28 26 27 30 30 29

GFSCGP_sfc_dewp_057.txt.gz
Dewpoint
20 19 19 23 25 21 20 19 17 18 15 17 18 16 19 21 22 27 35 37 42 44 46 47 52 52 54 56 59 59 58 59 59 58 57 57 57 58 58 59 55 56 53 53
21 20 17 17 19 19 18 19 18 18 15 17 15 12 15 18 21 25 31 36 39 44 45 48 51 52 54 55 58 58 57 58 58 58 58 57 57 57 57 57 59 56 56 52
23 19 23 21 21 19 20 20 19 18 16 19 16 13 15 17 20 23 29 31 35 42 44 48 50 53 54 55 57 57 57 57 57 58 59 58 57 56 55 55 55 56 57 53
30 20 23 23 21 23 22 21 20 18 18 16 16 11 15 16 18 24 27 29 33 38 44 46 49 52 54 54 56 57 57 57 57 58 57 57 55 53 53 53 52 52 57 56
26 21 19 21 22 24 22 22 21 20 20 20 17 14 17 17 16 19 22 26 32 37 43 45 48 51 53 54 56 57 57 57 57 57 57 57 55 55 53 53 53 54 57 58
24 26 25 25 22 21 21 21 21 23 22 21 20 16 14 15 16 20 19 20 26 36 41 44 48 50 52 53 55 56 57 57 57 57 57 57 55 54 53 53 53 54 55 57
16 23 24 24 22 22 21 22 20 19 21 20 19 17 17 18 20 21 20 20 26 32 38 44 46 48 51 53 54 55 55 56 57 57 56 57 56 55 55 54 53 52 55 56
15 20 22 25 23 19 21 22 20 18 22 19 19 17 15 21 22 22 23 22 25 32 39 43 46 49 50 53 53 53 54 54 57 57 56 57 56 55 55 55 54 54 53 55
15 10 16 23 24 23 23 22 20 22 24 25 19 21 22 23 21 21 21 22 25 30 37 41 44 48 50 52 54 54 52 52 54 57 57 56 56 55 55 56 56 55 55 54
19 15 12 19 26 25 23 23 21 23 21 21 19 23 23 21 21 23 23 24 24 26 31 37 42 46 50 52 53 55 52 51 52 55 57 57 57 56 57 56 57 57 56 55
21 24 20 22 24 22 23 24 26 23 23 22 22 20 23 27 28 28 28 27 30 31 32 34 37 42 48 51 52 54 53 51 51 54 56 57 58 58 58 57 58 57 57 56
27 27 22 26 22 25 24 25 28 25 26 25 29 23 27 28 27 28 27 28 29 29 30 32 37 43 46 50 51 53 54 52 51 52 55 58 59 59 58 59 59 59 58 58
35 25 22 22 25 25 24 24 25 27 28 29 30 24 25 26 25 26 27 28 29 30 29 30 34 42 46 48 50 52 54 53 52 52 54 57 58 58 58 59 59 59 59 58
37 33 22 18 22 21 25 26 26 26 27 26 27 26 24 25 25 25 25 29 30 30 29 29 30 33 42 47 49 50 52 55 53 52 53 54 57 57 58 58 59 59 58 58
37 32 32 22 25 24 23 25 25 25 26 25 25 25 23 24 24 22 23 23 24 26 32 34 34 33 34 40 47 49 51 53 54 53 52 54 56 57 57 57 58 58 58 57
35 32 30 29 24 23 24 24 23 22 21 21 21 21 22 23 23 22 23 21 23 28 35 38 39 38 36 36 36 46 49 52 53 54 54 54 55 55 56 56 57 57 57 57
28 28 31 27 25 23 22 23 24 24 23 23 23 22 19 19 18 22 26 30 31 34 38 40 42 42 42 41 41 39 44 50 51 53 54 53 55 55 56 56 55 56 56 57
28 28 27 27 27 23 20 20 19 21 20 20 17 16 20 24 26 28 28 35 37 39 41 41 42 43 43 43 42 43 38 43 48 50 52 53 54 54 55 55 55 55 56 56
29 29 28 24 23 20 15 17 17 17 14 16 17 24 26 28 30 29 35 37 38 40 41 41 42 44 45 45 45 42 38 38 40 47 50 51 53 53 53 54 55 56 56 56
27 30 30 27 21 18 18 20 26 22 15 26 28 29 29 30 30 29 36 38 39 38 40 40 42 44 45 47 47 47 40 37 39 43 48 51 51 52 52 54 55 56 56 54
28 28 26 26 23 20 18 23 23 23 27 32 31 31 32 31 31 35 37 39 39 39 39 41 42 43 44 45 46 47 48 45 40 41 44 50 51 52 53 54 55 51 45 39
24 26 27 26 25 21 25 24 25 37 35 35 35 36 39 38 36 35 39 39 40 38 38 38 39 41 41 39 40 43 47 50 53 52 51 51 51 50 49 46 43 41 38 35
26 26 26 24 24 30 29 36 38 37 37 37 37 37 38 37 36 38 39 39 39 37 37 36 37 37 35 33 36 38 42 46 48 48 45 43 41 42 41 40 38 36 35 34
28 34 29 32 27 31 28 35 37 37 37 36 36 36 36 37 38 37 37 37 36 35 35 34 34 33 31 31 32 34 38 40 39 38 38 37 36 35 35 35 36 35 34 33
25 27 25 27 27 27 27 36 38 36 36 36 35 36 36 35 35 34 35 34 33 32 32 33 31 30 29 29 30 31 35 36 34 33 32 31 30 30 29 29 31 31 32 31
25 25 28 28 35 35 33 35 36 35 35 35 34 34 33 33 32 32 32 30 28 30 29 28 28 28 27 28 29 30 32 33 32 30 30 29 28 28 27 26 26 30 29 30

GFSCGP_sfc_dewp_060.txt.gz
Dewpoint
28 16 14 24 25 24 22 19 19 20 20 19 20 17 16 18 21 28 30 33 35 43 45 48 50 52 58 58 58 58 58 59 59 58 58 58 57 58 58 59 57 57 55 54
34 20 11 16 23 23 23 22 21 20 19 17 16 16 16 15 19 22 25 33 36 40 44 48 51 52 55 58 58 58 58 58 58 58 57 57 57 58 58 58 55 54 54 53
35 25 20 17 15 18 20 22 21 19 19 18 17 18 18 14 16 19 25 27 34 38 43 47 51 52 54 56 57 58 57 57 57 58 57 57 57 57 56 56 55 53 54 52
38 37 29 29 20 19 20 20 18 19 19 17 18 16 17 16 16 17 22 29 32 34 43 47 50 53 53 55 57 57 57 57 57 57 57 56 55 54 52 55 56 54 57 54
37 33 33 28 25 24 22 25 23 22 21 22 18 17 17 17 16 17 23 28 31 34 41 46 49 52 53 55 57 57 57 57 57 57 57 56 55 53 52 54 54 54 56 58
31 32 34 26 21 23 23 23 24 24 24 21 20 19 18 17 17 18 20 24 29 33 38 44 50 51 53 54 57 57 57 56 57 57 57 56 55 54 51 52 51 52 53 57
23 25 23 29 27 24 23 23 20 21 22 23 21 19 22 22 19 21 22 23 30 36 40 43 48 49 52 53 56 56 56 56 57 56 56 56 56 55 53 52 51 50 51 53
25 23 21 25 26 23 24 24 22 21 25 20 20 18 19 22 20 23 23 27 31 34 41 41 46 50 51 53 56 55 55 55 56 57 56 56 56 55 54 53 52 51 50 53
24 21 21 25 28 24 25 27 23 25 25 26 26 21 20 21 22 20 21 23 30 31 37 41 45 50 51 53 54 56 55 55 56 55 57 56 56 55 55 54 53 52 52 53
21 21 21 19 24 26 26 26 25 24 21 23 24 22 20 24 23 22 24 26 29 32 35 40 43 49 51 53 54 56 54 53 56 56 56 56 56 56 56 55 55 54 53 53
22 23 23 22 20 23 24 25 28 28 23 25 26 27 32 30 30 30 31 32 34 35 35 36 41 45 50 52 53 55 54 53 53 56 57 56 55 55 57 55 55 55 55 54
35 26 23 25 26 23 23 24 25 28 28 27 30 26 33 34 29 31 31 31 32 34 34 36 38 44 47 51 52 54 54 53 53 55 57 57 56 56 56 56 56 56 55 55
31 27 24 22 26 28 24 25 25 28 34 35 32 30 31 28 28 29 30 32 32 33 32 33 34 43 45 49 51 53 55 54 53 53 55 57 57 57 57 56 56 56 55 56
32 34 29 23 28 34 31 26 30 30 34 35 35 33 34 34 30 27 29 28 26 28 33 37 39 41 41 48 51 52 54 55 55 53 53 55 57 57 57 57 57 57 57 56
35 35 32 30 30 28 28 29 27 28 34 33 30 29 34 36 36 27 25 25 24 27 34 39 41 42 43 43 44 49 52 55 55 54 52 52 55 57 57 57 57 57 57 57
36 32 33 31 30 25 23 28 35 34 24 25 30 33 32 31 23 24 25 25 28 33 38 39 41 42 43 43 43 44 46 52 55 55 54 53 53 55 56 57 57 58 57 57
30 31 33 28 28 26 24 23 28 30 22 22 22 23 26 22 21 23 29 30 36 37 40 41 41 43 44 45 46 45 46 45 50 54 54 54 54 54 55 56 56 56 57 57
27 26 31 29 32 23 22 20 21 23 23 23 23 24 21 23 26 26 35 37 37 37 39 40 41 42 44 46 47 48 48 48 44 46 52 54 55 54 54 55 55 55 56 56
28 27 29 30 27 29 26 20 17 18 20 20 17 19 23 27 29 34 36 37 38 39 39 39 41 42 44 44 44 45 46 47 48 47 41 50 53 54 54 54 55 55 56 56
27 31 29 28 24 23 22 23 23 20 19 24 28 29 29 29 34 36 38 37 38 39 38 38 39 40 42 41 41 42 44 45 48 51 53 51 48 52 53 54 55 55 55 55
27 29 27 27 25 23 18 20 23 21 30 34 33 34 35 34 34 35 37 38 38 39 38 38 38 38 38 36 36 38 40 41 41 46 50 49 50 52 53 54 54 55 48 40
25 27 27 26 23 21 20 23 22 38 39 37 37 37 39 36 35 36 39 39 38 36 36 36 35 35 35 33 33 34 35 37 39 43 46 44 44 46 46 46 43 42 39 36
31 26 26 24 23 32 31 37 38 38 38 37 36 35 35 35 35 35 36 36 35 34 33 33 33 33 32 31 31 31 33 37 37 38 38 38 38 38 39 40 39 37 35 34
36 35 27 30 28 24 37 38 36 36 36 35 34 35 35 35 35 34 35 33 31 31 29 30 29 28 28 28 29 31 32 35 33 32 32 31 30 31 32 35 36 35 33 31
35 37 31 31 34 38 40 40 35 34 34 34 34 34 34 33 33 33 31 30 28 28 27 27 26 26 26 27 27 29 31 32 30 30 30 29 28 28 28 28 28 28 30 30
30 35 34 34 37 39 38 35 34 34 33 32 32 31 31 31 30 30 28 26 26 26 26 25 24 24 25 26 27 29 30 31 29 28 28 28 27 27 26 26 26 30 30 30

GFSCGP_sfc_dewp_063.txt.gz
Dewpoint
32 23 18 15 24 25 25 23 23 22 22 24 21 17 18 21 23 31 31 30 40 44 46 47 52 57 57 57 58 58 59 59 59 59 58 59 58 58 58 58 57 58 57 56
36 27 26 20 17 26 25 23 23 23 23 24 21 18 18 18 18 23 31 31 32 43 46 47 55 56 57 56 57 58 57 58 58 58 58 58 58 58 58 58 58 57 56 54
36 33 30 28 19 13 22 23 24 23 23 21 19 16 18 20 21 19 24 30 33 43 46 47 51 56 57 56 57 57 57 57 57 58 58 58 58 57 57 57 57 55 54 53
38 37 33 32 33 23 13 18 20 19 19 18 20 17 19 20 20 19 19 27 34 44 46 48 49 53 56 56 57 57 57 57 57 57 57 56 55 54 54 55 54 53 54 53
34 37 36 32 29 29 28 25 24 24 23 21 21 19 19 21 20 17 18 26 29 43 46 49 50 50 55 57 57 57 57 57 57 56 56 55 54 53 54 55 55 54 53 53
32 36 39 37 36 35 32 32 28 26 25 23 23 20 20 20 20 22 20 26 29 36 46 49 51 51 53 56 56 56 56 56 57 56 56 55 54 53 52 53 54 54 54 54
24 30 31 37 35 33 30 31 25 23 23 23 23 22 21 23 23 24 24 25 29 34 46 48 51 52 51 55 56 55 56 56 56 56 55 55 54 53 50 53 53 53 53 55
18 26 25 27 25 32 29 28 27 22 23 22 23 21 21 24 23 24 23 27 32 37 46 48 50 52 52 55 55 55 55 55 56 56 56 55 55 54 51 51 53 53 52 53
24 23 26 24 28 29 30 27 26 27 30 28 28 28 22 23 22 21 21 28 34 37 43 48 49 51 52 53 55 55 55 55 55 56 56 56 55 54 53 51 51 52 50 51
25 22 24 26 27 31 30 28 28 33 27 26 25 27 29 29 23 27 24 27 31 33 37 47 49 50 52 54 55 55 55 54 55 56 56 56 56 56 55 54 52 51 50 50
31 26 23 24 24 26 28 30 36 35 30 25 25 28 34 30 31 30 31 32 31 31 34 38 47 50 52 53 55 54 54 54 54 54 55 56 56 56 55 55 53 53 52 50
33 34 24 19 21 24 28 28 35 34 31 32 29 32 37 33 28 29 30 28 31 35 38 40 41 44 50 52 53 54 53 54 55 55 55 55 56 56 56 55 55 55 53 52
28 31 27 25 25 28 28 25 31 32 33 34 32 30 40 39 38 28 24 24 30 37 39 40 41 42 45 50 53 54 54 53 53 56 55 55 55 54 55 55 55 54 55 54
32 32 32 28 30 36 34 32 26 29 32 32 35 36 40 40 40 37 25 26 34 38 39 40 41 42 44 46 48 52 55 55 54 55 56 55 55 54 54 55 55 55 55 55
36 31 33 33 31 33 34 33 30 30 31 35 35 37 37 43 42 37 26 33 37 39 40 40 41 42 43 44 46 47 48 52 56 55 54 55 56 56 55 55 55 55 55 55
35 30 33 30 31 30 30 31 30 35 35 34 37 38 44 43 44 41 32 37 38 39 39 40 40 42 44 46 46 47 47 48 50 55 54 53 56 56 56 56 56 56 56 55
34 33 31 28 29 32 27 28 34 36 37 35 36 35 42 42 38 35 36 36 37 38 39 40 41 43 44 43 42 42 44 46 47 49 52 55 54 55 56 56 56 56 56 57
30 29 31 28 27 25 29 32 32 32 35 34 26 31 27 32 36 36 37 37 37 37 38 39 40 42 41 40 39 41 42 44 45 46 46 49 52 53 53 55 56 56 57 57
30 29 26 26 27 28 27 29 23 26 26 27 25 26 29 35 35 36 38 39 38 38 37 37 39 40 38 35 35 38 39 40 40 41 42 44 49 48 49 53 54 55 55 56
28 30 27 27 24 23 29 29 27 26 29 35 34 34 34 35 33 35 39 38 37 36 36 35 36 36 34 33 33 35 35 36 36 38 39 43 45 44 45 47 50 55 55 55
25 26 25 25 24 29 30 28 27 24 33 37 37 37 35 34 37 38 37 35 34 33 33 34 34 32 31 31 32 32 33 33 34 36 39 39 39 39 41 43 44 52 51 41
28 25 26 25 23 21 28 32 30 38 39 37 36 37 37 36 37 36 34 32 31 30 30 29 30 29 28 28 28 30 30 31 35 35 34 33 33 33 35 39 41 41 40 38
30 32 28 26 25 35 39 39 41 40 37 37 36 36 36 35 34 32 30 30 29 28 27 27 27 26 27 27 27 28 30 32 33 31 30 29 29 29 30 31 34 36 37 35
35 37 34 32 36 37 41 40 37 35 35 35 35 35 35 34 33 30 29 28 27 26 25 25 25 25 25 26 27 28 30 31 30 28 28 28 27 26 27 28 29 30 32 32
36 36 35 34 38 39 39 39 37 34 34 33 33 32 32 32 30 28 27 26 25 24 23 23 24 24 25 26 26 28 30 30 28 27 26 26 26 26 25 26 28 27 29 30
37 33 34 34 38 38 38 38 37 34 32 31 30 28 28 29 28 26 25 24 23 23 23 23 24 25 26 26 27 28 29 29 28 26 25 26 25 26 25 23 24 29 30 30

GFSCGP_sfc_dewp_066.txt.gz
Dewpoint
33 26 24 16 20 26 24 24 24 24 25 25 23 23 26 25 19 22 29 34 43 45 46 52 58 58 57 57 57 58 59 60 60 60 59 59 59 59 59 59 58 59 58 58
36 30 28 23 19 19 24 24 25 25 24 24 23 24 22 21 20 23 30 31 42 45 45 53 57 57 57 57 56 57 59 59 59 59 59 59 59 59 59 58 58 58 58 57
34 34 35 28 26 21 19 18 24 24 24 23 25 22 20 20 20 21 28 31 37 44 45 52 56 56 56 57 56 56 58 58 58 58 58 57 58 58 57 58 58 59 58 55
38 38 37 35 30 28 29 18 17 21 22 24 25 22 21 21 21 22 21 28 33 44 45 50 55 56 55 56 57 56 57 57 57 58 57 57 55 55 56 57 57 58 57 55
32 36 37 34 32 31 28 34 32 30 27 25 24 21 20 21 21 21 22 22 31 44 45 49 54 55 56 56 56 56 57 57 57 57 57 56 56 56 56 56 56 57 57 55
32 39 37 35 35 34 37 33 32 28 27 24 25 23 23 21 21 22 23 22 31 43 45 47 52 55 56 56 57 56 56 56 56 57 57 55 55 54 54 55 54 55 54 53
21 29 36 38 35 35 35 33 26 25 24 24 26 24 24 25 24 25 26 24 29 44 46 48 49 54 55 55 56 55 55 55 56 56 56 55 54 53 53 54 54 53 53 52
17 20 25 36 35 33 32 35 29 25 26 25 24 22 22 25 25 25 25 26 32 44 47 49 49 52 55 55 55 55 55 55 56 56 55 55 54 53 52 53 53 53 53 52
21 24 26 31 32 33 33 35 34 31 30 30 29 28 29 30 25 24 23 31 38 44 47 49 50 50 55 55 55 55 55 55 56 56 56 55 54 54 52 52 53 53 53 54
24 22 24 27 30 31 31 36 33 35 27 25 26 26 29 29 30 28 30 32 39 45 47 49 51 51 52 55 55 55 55 55 55 56 56 55 55 54 53 52 51 53 53 52
33 27 23 27 26 29 31 36 36 35 33 29 26 30 39 35 30 31 35 38 39 40 43 48 50 52 52 55 55 55 54 54 55 56 56 56 56 55 55 53 51 51 52 51
32 33 30 26 24 26 33 35 35 33 30 32 32 33 44 39 35 30 36 38 40 41 42 43 48 51 52 54 55 54 54 54 54 55 55 55 56 56 56 55 54 53 51 51
27 29 27 24 25 25 28 30 35 36 36 34 31 33 44 42 42 41 34 38 40 41 42 43 44 45 47 50 55 55 55 55 55 54 54 55 55 55 55 55 55 55 53 52
32 30 30 28 32 34 34 33 33 36 34 32 32 34 41 43 43 40 37 39 40 40 41 42 44 46 47 48 48 49 52 54 55 55 55 54 54 55 55 55 55 55 55 54
32 26 33 33 32 30 30 35 35 33 34 32 33 34 39 44 42 42 41 39 39 39 40 42 44 44 43 42 43 44 45 47 49 55 55 55 55 55 55 55 55 55 55 55
36 28 32 30 29 26 28 35 35 37 38 32 33 35 42 46 46 42 40 38 38 39 40 42 41 40 39 39 40 41 43 44 47 47 47 54 56 57 56 55 55 55 55 55
32 31 28 25 29 27 28 30 31 33 38 38 37 37 44 42 43 41 38 38 38 38 40 40 39 37 35 35 37 39 40 42 42 42 43 45 46 50 55 56 56 55 54 55
30 28 29 26 27 19 28 27 28 36 37 38 39 41 43 41 43 44 37 37 37 38 38 38 36 34 33 33 34 35 36 37 37 38 39 41 43 46 46 47 50 56 56 55
32 28 25 23 24 24 21 29 30 33 34 37 37 41 43 39 38 37 37 37 36 36 36 35 33 32 31 31 32 33 33 33 34 35 36 37 40 40 41 43 44 46 47 55
30 29 25 25 22 19 28 30 31 31 34 37 36 39 37 36 35 35 35 33 33 33 33 32 31 29 29 29 30 31 31 31 32 33 34 34 34 35 36 39 40 42 44 45
26 26 24 23 22 25 30 31 33 26 34 37 37 38 38 36 35 33 32 30 30 30 30 30 29 27 27 27 29 29 30 31 32 32 31 30 30 30 33 33 37 40 41 41
25 25 24 25 23 19 33 33 29 37 40 38 37 37 36 34 32 31 29 28 28 27 27 27 26 26 26 27 28 28 29 30 30 29 29 28 28 28 29 31 32 35 37 36
30 32 29 26 25 37 36 36 38 39 39 38 38 36 34 32 30 30 28 27 26 25 24 24 24 25 26 26 27 28 29 29 28 27 26 27 26 26 27 28 29 30 32 32
36 37 35 34 36 36 37 36 34 33 33 33 34 34 33 31 29 28 27 25 23 23 22 23 24 24 24 25 26 28 28 27 26 25 24 25 25 24 26 27 28 28 28 28
36 35 35 36 37 37 37 37 37 32 32 30 29 30 29 28 27 25 24 23 22 22 22 23 23 23 24 24 25 26 27 27 25 24 24 24 24 24 23 25 27 28 29 29
35 32 31 31 37 35 37 37 36 33 29 28 27 26 26 26 24 23 22 22 22 22 22 21 22 22 23 24 24 24 25 25 24 22 22 22 21 21 21 22 21 25 28 30

GFSCGP_sfc_dewp_069.txt.gz
Dewpoint
35 28 25 21 21 25 27 25 24 25 26 25 24 23 24 25 26 22 20 22 41 44 45 53 57 57 57 57 57 59 58 60 60 60 59 59 58 58 59 58 59 60 61 59
35 30 30 29 24 19 19 20 24 25 26 25 24 23 23 24 24 22 22 24 31 43 46 55 57 57 57 57 57 58 57 59 60 60 60 60 60 59 59 58 58 59 59 60
32 33 36 31 27 25 23 18 23 24 25 26 24 22 25 26 22 21 22 26 35 44 45 55 56 56 56 56 56 57 57 57 58 60 58 58 58 58 58 58 58 59 59 59
37 38 37 36 33 30 25 24 26 18 18 21 25 22 25 26 24 23 22 28 34 44 46 53 55 55 55 55 56 56 57 57 58 58 58 57 57 56 57 58 58 59 58 58
31 36 38 35 34 33 28 36 34 32 28 26 24 23 24 24 23 23 23 23 29 42 45 51 55 55 55 56 56 56 56 57 57 57 57 57 55 55 57 57 57 58 58 57
33 38 36 35 35 33 34 35 33 32 28 24 23 24 24 25 24 24 24 24 25 39 44 48 54 55 55 55 55 55 55 55 56 56 56 55 55 55 56 56 56 57 58 57
20 25 35 38 35 35 35 35 28 24 23 21 26 25 24 27 27 27 27 26 26 37 44 49 54 55 54 55 55 55 55 55 55 56 56 55 54 55 55 55 56 56 56 56
16 13 30 37 32 31 31 37 30 23 24 25 28 24 24 31 31 31 27 26 26 32 44 49 53 54 54 54 55 54 54 54 55 56 56 56 55 55 54 55 55 55 55 55
19 21 26 36 35 36 36 33 38 32 33 28 28 28 30 33 32 35 29 25 28 39 44 47 53 54 54 55 54 54 54 54 54 55 55 56 55 53 53 54 54 54 55 54
24 21 24 28 34 37 37 39 33 35 27 24 27 30 34 34 32 37 39 39 41 45 47 48 51 54 55 55 54 55 55 54 54 55 55 55 55 54 53 52 53 53 53 53
30 26 22 27 30 32 37 37 36 36 34 28 26 33 40 40 39 37 39 41 42 45 48 50 51 53 54 55 54 55 55 55 54 54 55 55 55 54 53 52 52 53 53 52
31 33 30 29 27 33 34 35 37 32 31 33 34 33 43 43 39 38 39 41 42 46 48 50 51 53 55 55 55 55 54 54 55 56 55 55 55 55 54 54 53 52 52 53
27 28 27 24 26 32 33 37 37 37 37 31 30 31 44 43 41 39 39 40 42 44 46 47 47 47 49 54 55 55 55 55 55 55 55 55 55 55 55 55 55 54 52 52
33 30 28 24 30 34 34 34 36 37 33 32 33 37 41 41 42 40 42 39 42 44 44 43 43 43 45 46 47 48 48 49 49 54 55 55 55 55 55 55 55 55 54 53
29 24 31 31 31 30 31 32 35 36 36 34 31 31 37 42 44 44 43 39 40 40 40 38 38 39 40 40 42 44 44 45 46 50 50 53 55 56 56 56 55 55 55 54
35 27 30 27 31 27 23 26 32 35 36 37 36 33 42 44 44 44 45 41 40 40 38 36 33 33 34 35 37 38 39 40 40 41 42 44 46 51 54 56 56 56 56 55
32 30 28 23 27 26 24 30 28 35 36 35 36 37 44 44 42 44 43 42 40 38 37 34 33 33 32 33 35 35 35 36 37 37 39 40 42 42 44 45 47 53 55 55
30 28 28 24 25 15 21 21 31 31 36 39 39 41 42 42 44 42 43 42 40 38 34 32 33 31 31 31 33 33 33 34 35 35 35 36 36 37 38 40 42 43 45 47
31 28 24 20 21 21 21 30 30 30 31 37 37 39 41 42 37 36 36 37 37 35 32 31 29 29 28 29 31 31 31 32 32 32 32 31 32 32 34 36 36 38 42 43
32 29 24 25 20 15 22 30 32 34 30 39 38 41 41 38 36 35 35 34 33 32 30 28 28 27 28 29 30 30 30 30 30 30 29 28 28 30 31 32 33 35 38 40
26 26 25 23 21 23 27 36 35 28 33 38 38 44 41 37 36 32 32 31 30 29 28 28 26 26 27 28 29 29 29 28 28 28 28 27 27 28 29 30 31 33 35 36
24 24 23 25 22 18 34 36 30 37 39 38 36 34 33 32 31 30 29 27 26 25 25 25 25 26 26 27 28 27 27 27 27 27 26 25 26 26 27 28 30 31 31 31
21 31 28 26 25 35 35 34 38 40 40 40 39 37 35 33 32 30 28 24 23 23 24 24 25 25 25 26 27 26 25 26 25 25 24 24 24 24 25 26 26 27 28 28
35 38 33 34 35 35 35 33 33 31 33 34 37 37 35 32 30 28 24 23 22 23 23 24 24 24 24 25 25 26 26 25 24 23 23 23 23 22 22 24 24 24 26 26
36 35 32 35 36 37 37 35 35 34 32 30 29 28 28 27 25 24 23 22 22 21 22 22 22 22 23 24 24 25 24 24 22 22 22 22 22 22 22 24 24 24 26 25
34 31 29 30 36 35 35 36 35 32 30 28 26 25 25 24 23 22 21 21 20 20 20 20 20 21 22 22 23 24 25 23 22 21 21 21 21 21 20 20 21 23 24 25

GFSCGP_sfc_dewp_072.txt.gz
Dewpoint
33 28 24 22 21 20 24 24 24 25 26 26 25 24 24 25 25 25 26 22 25 39 45 53 56 57 56 55 57 58 59 61 61 60 59 59 58 58 59 60 61 61 61 59
34 29 30 29 26 21 20 18 17 22 26 26 25 24 25 25 24 25 25 25 25 30 47 54 56 57 56 57 57 57 57 60 61 60 59 59 59 59 59 59 60 61 60 58
30 30 36 33 31 28 26 23 22 20 23 24 24 22 24 24 26 24 23 23 23 31 45 53 55 56 57 56 57 56 57 59 60 60 59 59 58 59 58 58 59 59 61 59
35 36 36 36 35 32 27 27 25 22 22 18 23 20 23 25 25 26 25 24 28 31 43 53 54 55 56 56 57 56 56 57 59 59 58 57 57 56 58 58 59 59 60 60
30 35 36 36 34 34 31 33 34 32 30 26 25 23 21 25 24 26 27 25 24 39 45 53 54 55 55 56 56 56 56 57 58 59 58 58 57 57 57 58 58 59 59 59
34 36 37 35 35 35 34 35 33 32 30 26 25 23 22 24 25 27 26 26 25 27 45 51 54 55 55 55 55 56 55 54 56 57 58 57 56 55 56 56 57 58 57 58
19 21 34 36 33 35 35 34 27 25 25 24 25 23 22 23 25 31 33 31 27 26 42 51 54 54 54 54 55 55 54 54 54 56 56 56 56 55 55 56 56 56 57 56
14 13 28 36 30 30 34 32 27 22 22 24 28 23 25 32 33 38 39 40 30 28 41 49 53 54 54 54 54 55 54 54 54 54 54 55 54 54 55 56 56 57 57 57
16 20 25 35 35 32 33 34 37 33 35 29 27 28 33 39 39 38 40 41 42 32 36 47 53 54 54 54 54 54 54 54 54 54 54 54 54 54 54 56 56 56 57 56
21 20 23 32 36 38 36 39 33 33 26 23 26 31 34 38 38 39 40 42 44 47 47 51 53 54 54 54 54 54 54 53 53 54 53 54 54 53 53 54 54 55 56 55
25 26 23 33 30 32 34 34 36 36 32 29 27 32 40 39 38 39 41 44 47 49 50 52 53 53 54 54 54 54 54 53 53 54 54 53 53 53 52 52 52 54 54 54
33 34 29 29 29 33 36 36 35 32 31 34 33 33 43 40 39 40 41 43 45 45 47 52 53 54 53 54 55 54 54 54 54 55 54 54 54 54 52 52 52 52 53 53
31 32 27 22 28 33 34 36 36 36 35 33 29 31 43 42 41 43 40 41 40 41 41 43 45 47 50 53 54 54 54 55 56 55 55 55 55 54 53 53 53 52 52 52
32 29 24 19 24 32 30 30 32 35 32 32 32 35 40 41 41 42 39 39 38 38 38 39 40 42 44 45 47 47 47 48 48 54 55 55 55 55 55 55 55 54 53 52
28 24 30 29 29 30 30 29 29 31 34 33 34 35 37 41 42 44 39 39 36 34 33 35 37 38 40 40 41 40 40 41 43 46 46 47 51 56 56 56 56 56 55 54
35 29 29 25 29 25 23 19 23 27 34 34 35 34 38 45 45 45 42 38 36 34 33 32 32 33 34 35 34 35 37 38 39 39 40 41 43 45 45 47 48 54 56 56
30 29 26 21 25 24 16 25 21 27 36 36 32 35 43 43 43 43 43 39 37 34 33 32 31 31 31 32 33 33 34 35 35 35 35 35 37 37 38 41 42 43 45 47
30 27 27 24 23 13 15 20 28 34 34 37 37 40 43 41 43 43 42 40 37 35 33 31 30 29 30 31 31 32 33 32 32 31 31 31 32 33 35 36 36 38 41 43
31 28 24 19 20 19 20 29 31 31 28 35 38 39 39 37 37 36 38 37 35 33 32 29 29 29 29 29 30 31 30 29 29 28 28 28 30 31 32 32 34 35 37 40
30 28 24 25 19 13 19 30 34 34 27 38 37 38 38 38 34 34 36 35 33 31 29 28 28 28 28 28 29 29 28 27 27 27 26 27 29 29 29 30 32 34 36 36
27 27 25 23 20 22 26 34 36 25 27 36 36 40 39 39 37 36 34 32 31 28 27 26 26 27 27 28 28 26 27 26 26 25 25 25 26 27 28 29 30 31 32 31
23 23 23 25 23 18 34 34 28 35 37 35 34 35 33 32 32 30 29 28 27 25 25 25 25 26 27 27 26 24 25 25 25 25 24 23 24 25 25 26 28 28 29 28
21 27 26 26 25 34 34 33 33 39 39 36 35 35 32 31 30 29 27 27 26 24 24 25 25 25 25 25 26 25 25 25 24 23 23 22 22 22 24 24 25 25 25 25
32 36 32 33 34 33 33 33 32 31 31 35 35 35 33 31 29 27 26 25 23 23 23 23 23 23 24 25 25 25 24 23 23 22 22 23 22 22 22 23 24 24 23 23
34 35 31 34 36 36 36 36 35 32 31 31 30 30 29 28 26 24 22 22 21 21 22 22 22 22 22 23 23 25 23 23 21 21 21 21 21 22 22 23 23 23 25 24
33 31 28 29 34 34 32 33 33 30 29 28 25 24 24 24 23 23 21 20 18 18 19 19 20 19 20 20 21 21 23 23 22 21 20 20 20 20 20 20 20 23 24 24

GFSCGP_sfc_dewp_075.txt.gz
Dewpoint
31 25 22 23 24 23 20 20 19 19 23 23 22 25 27 28 27 27 27 27 28 29 33 43 54 57 58 60 60 59 60 60 61 60 60 60 59 61 61 62 62 61 61 63
34 28 28 27 25 22 22 21 21 22 21 20 19 20 26 27 27 28 28 28 28 29 29 45 55 56 57 58 60 59 60 60 61 59 59 60 60 60 60 61 62 63 61 61
27 28 34 30 31 30 29 28 28 26 26 26 23 20 20 22 27 27 27 28 28 28 29 41 54 56 57 58 59 59 59 60 60 61 60 60 60 59 59 59 60 60 60 59
34 34 33 33 32 34 29 30 29 28 26 21 22 18 22 23 24 26 27 29 30 30 30 35 52 55 56 57 59 58 58 59 60 60 59 59 57 57 58 59 59 60 60 59
27 35 36 33 30 34 30 33 32 31 30 29 27 24 23 25 24 25 28 30 31 32 33 42 51 54 56 58 58 57 57 58 59 60 59 58 57 57 58 59 59 59 60 59
33 35 36 34 34 34 34 33 32 31 30 26 26 24 22 22 23 27 30 34 36 34 36 43 52 54 56 57 57 56 57 57 59 59 59 59 58 57 57 58 58 59 59 60
20 22 33 35 31 34 31 30 25 23 25 21 24 25 25 27 29 37 39 39 41 40 39 48 52 53 55 56 56 56 56 56 57 58 59 58 57 57 57 57 58 58 58 58
14 15 24 34 28 26 31 29 26 20 22 23 27 22 25 38 39 40 41 43 44 44 36 48 52 54 55 55 55 55 55 54 55 56 58 58 57 57 57 57 57 57 58 57
16 16 23 34 34 29 32 31 33 34 30 28 25 27 37 38 39 40 43 45 47 47 45 42 52 54 55 54 54 54 54 54 54 55 56 57 56 56 56 57 57 58 58 57
21 18 23 35 36 37 34 38 34 34 23 22 22 27 33 37 38 40 43 45 48 49 49 49 53 54 54 54 54 55 55 55 54 54 57 56 56 56 56 56 56 57 58 58
23 26 24 34 32 31 34 32 36 35 31 25 26 32 39 39 40 41 43 43 44 46 51 51 52 53 54 54 55 54 54 54 54 54 55 57 56 56 56 56 56 56 57 56
36 34 25 24 29 33 33 32 36 31 29 33 32 30 43 41 39 41 41 41 42 43 45 51 53 54 54 54 54 54 54 53 54 54 54 54 56 56 56 56 56 57 56 56
34 34 28 27 31 33 32 34 38 37 35 31 30 31 44 43 39 38 38 38 39 41 42 43 45 46 50 51 52 51 52 54 55 55 55 55 54 55 55 55 55 55 56 56
35 29 30 21 21 28 28 27 29 35 29 30 33 34 39 39 42 37 36 36 36 37 38 39 39 41 42 43 43 44 47 48 53 55 54 54 55 55 55 56 56 55 55 55
35 26 30 27 28 29 25 24 22 22 30 30 28 30 35 40 42 43 37 33 34 33 34 34 35 36 38 39 41 42 41 42 43 44 44 45 47 48 50 52 54 56 56 54
38 28 30 23 29 23 20 18 21 25 24 28 32 33 36 38 44 42 39 35 33 32 32 31 31 32 33 34 35 37 37 37 36 36 36 38 39 41 43 45 46 47 47 48
32 31 26 18 24 21 13 19 18 24 29 32 31 33 40 43 43 41 39 36 33 32 32 30 30 30 31 32 33 33 32 33 33 33 32 33 35 36 37 38 39 41 43 45
33 27 27 22 22 9 12 20 24 31 33 32 32 38 41 39 39 41 39 37 36 33 31 30 30 30 30 31 31 31 30 29 29 29 29 31 33 33 34 36 37 39 41 42
34 29 25 20 18 17 16 28 28 31 28 37 36 39 39 38 37 36 36 35 33 32 32 31 30 30 30 30 29 28 28 27 26 27 28 30 31 31 33 34 35 37 38 37
30 29 26 25 18 12 16 30 31 34 20 36 36 37 39 39 37 34 34 33 31 29 28 28 29 29 28 28 28 27 26 25 25 26 27 28 29 30 30 31 33 33 33 31
28 28 25 24 21 21 29 33 35 15 23 35 35 38 39 38 35 32 32 30 30 29 27 27 27 27 27 26 26 25 25 25 24 24 25 26 26 28 29 29 30 30 29 29
23 24 25 23 21 17 33 34 27 34 36 34 33 33 32 31 29 29 28 28 28 28 25 25 25 25 25 26 25 24 23 24 24 23 24 24 25 26 26 27 28 28 28 28
25 28 27 25 24 34 33 33 33 38 37 35 34 33 32 29 28 27 26 26 26 25 23 23 24 24 24 24 24 23 23 23 24 23 23 23 23 23 24 25 25 25 25 25
30 36 33 32 34 34 34 32 32 33 34 34 33 31 29 26 26 25 25 25 25 23 21 22 22 22 22 23 23 23 22 22 22 21 22 22 22 22 22 23 24 24 23 23
33 35 30 33 34 34 33 34 33 31 31 30 31 30 28 27 25 24 22 22 21 20 20 20 20 20 21 21 22 23 22 22 21 21 21 21 22 21 21 23 23 23 26 25
32 30 29 28 32 30 29 30 31 29 29 29 26 25 26 25 23 22 20 20 19 18 18 19 19 19 20 20 20 21 22 22 21 21 21 21 21 20 20 19 19 22 23 23

GFSCGP_sfc_dewp_078.txt.gz
Dewpoint
23 19 17 16 20 18 18 18 17 16 18 19 19 19 19 21 25 27 28 27 26 26 26 28 38 51 55 59 60 61 62 62 62 62 61 61 62 62 62 62 62 62 62 63
29 23 18 18 20 21 20 18 18 21 23 24 22 22 22 21 21 23 27 28 28 27 25 27 38 52 56 58 60 60 61 61 61 60 59 60 61 62 62 62 62 62 63 63
23 19 30 26 25 23 24 25 25 25 27 28 27 23 21 23 24 23 26 27 28 28 26 27 38 51 55 57 60 59 60 61 61 60 59 61 61 61 61 61 61 62 63 61
25 25 26 27 25 28 24 27 28 27 27 18 24 16 20 22 23 22 23 28 28 28 27 28 33 48 53 56 60 59 60 59 60 59 59 59 58 57 59 59 60 61 61 60
21 27 31 26 25 29 24 30 28 28 28 28 25 23 21 23 23 23 25 27 29 30 27 31 34 42 51 56 59 60 60 59 59 58 59 57 58 58 58 59 60 60 60 59
25 28 32 30 32 29 29 27 24 26 28 24 23 23 19 21 25 26 30 29 33 34 36 34 36 45 50 56 59 59 59 58 59 58 59 59 58 58 58 59 59 59 59 59
20 23 29 32 28 29 29 23 14 19 23 19 22 22 23 25 34 35 35 38 40 42 41 37 43 47 52 56 58 58 58 57 58 58 57 58 58 58 57 58 57 59 59 59
14 15 19 28 27 19 24 22 19 15 16 16 23 21 23 36 37 39 40 43 45 45 45 38 46 49 52 56 56 57 57 56 57 57 56 59 58 58 57 58 58 59 59 59
18 17 22 29 29 26 30 29 29 28 27 25 20 22 32 35 36 38 41 43 45 48 49 42 46 51 53 55 55 57 56 56 56 57 57 59 59 59 58 59 58 58 58 58
21 18 21 30 32 31 32 33 31 32 25 19 17 22 27 36 38 40 42 43 44 47 50 46 49 52 54 55 55 57 56 55 56 56 57 55 57 58 57 57 57 57 58 58
22 23 24 32 30 25 31 31 33 36 31 23 21 33 41 39 40 41 41 42 43 45 47 50 51 52 53 54 55 56 55 56 55 55 56 55 55 56 57 56 56 56 58 58
28 29 23 21 24 28 27 28 31 29 27 34 34 31 42 39 38 39 39 39 41 42 44 46 52 53 54 54 55 55 55 55 55 55 55 55 56 56 57 56 56 57 57 57
37 31 24 22 29 30 28 30 37 34 36 30 30 33 41 42 38 37 37 37 38 39 40 41 43 44 45 49 53 54 55 54 55 54 55 55 55 55 55 55 56 57 56 56
37 31 27 17 28 28 29 28 29 30 30 27 25 29 35 40 40 40 35 37 36 36 37 37 37 39 41 43 44 46 48 53 54 54 52 52 54 55 55 55 55 55 55 56
35 32 28 28 29 29 21 20 20 24 25 25 18 19 24 33 38 40 35 36 35 34 33 34 35 36 37 38 40 41 41 44 45 43 43 44 45 47 48 50 50 54 55 55
35 32 28 26 27 25 21 19 15 18 23 22 23 25 31 38 42 39 36 37 35 33 32 32 32 33 34 35 36 36 37 38 38 37 38 39 41 41 42 43 45 46 47 48
33 32 27 21 24 19 16 16 17 19 21 28 28 30 36 38 41 39 38 35 35 32 31 30 31 32 32 32 32 32 33 33 34 35 35 36 38 37 39 40 41 43 44 42
33 31 27 20 18 9 19 19 22 24 25 31 30 37 40 39 38 39 37 36 34 34 33 31 31 31 30 29 30 29 28 29 30 31 32 33 35 36 38 39 40 41 39 37
35 35 27 19 16 12 10 26 25 26 25 34 34 36 39 37 34 33 34 33 32 32 32 32 31 31 30 28 28 27 27 27 27 28 29 30 33 33 35 36 37 37 36 34
30 31 31 23 14 7 25 28 29 28 21 34 35 37 38 39 37 31 33 31 31 31 31 29 28 28 28 29 27 26 26 26 26 28 27 29 30 31 33 33 34 33 32 31
26 27 25 21 18 17 28 30 32 18 28 36 35 35 37 38 32 29 29 29 31 31 30 30 28 27 26 27 27 26 25 24 26 26 27 28 29 30 31 31 31 31 31 31
21 22 24 22 20 16 33 32 28 35 37 35 33 32 29 28 28 28 28 28 29 30 28 25 25 25 25 25 25 24 25 25 25 25 25 26 27 27 28 29 29 30 29 29
27 30 28 26 28 34 34 34 34 36 36 36 33 31 29 27 27 27 27 27 28 29 23 23 23 24 24 23 23 23 24 24 25 24 24 25 25 25 25 26 27 27 28 28
30 33 32 34 32 33 34 32 32 33 32 31 31 29 29 27 27 26 26 26 26 27 22 22 22 22 22 23 23 23 23 23 23 23 23 23 23 23 23 24 25 26 27 27
31 32 30 32 32 32 32 32 31 31 31 30 32 31 30 29 28 26 25 24 24 25 24 21 21 21 22 22 23 23 23 23 22 23 23 23 23 23 22 24 24 23 26 26
31 30 29 29 32 30 29 31 31 30 30 32 29 28 28 27 25 24 23 23 22 22 21 21 22 22 22 22 22 23 24 23 23 23 24 24 24 23 22 21 20 22 23 23

GFSCGP_sfc_dewp_081.txt.gz
Dewpoint
23 19 17 18 20 19 16 14 12 13 13 15 16 15 15 16 17 21 25 26 27 27 25 24 30 36 46 53 58 61 62 63 62 61 61 61 61 61 62 63 63 63 64 64
21 19 18 15 15 15 16 16 15 15 16 22 22 21 20 20 18 19 20 25 27 28 26 25 28 38 50 54 58 61 61 62 61 59 59 59 61 61 61 62 63 62 62 63
23 21 25 22 19 17 17 17 17 18 21 21 21 19 20 21 24 23 22 21 23 28 28 25 26 37 51 53 58 59 61 61 61 60 59 60 61 61 60 61 62 61 62 62
21 21 20 18 20 19 18 19 22 24 22 16 19 16 18 17 18 21 23 25 25 28 28 26 25 35 49 53 58 59 60 60 60 60 59 59 59 57 59 59 61 61 61 62
18 20 24 22 20 22 22 24 27 25 21 19 17 16 15 18 19 21 24 24 25 28 29 27 26 28 45 53 57 59 60 59 59 59 59 57 56 57 58 58 60 61 61 61
21 21 22 24 25 27 24 26 26 23 19 18 19 16 13 17 25 27 28 29 27 28 29 28 26 27 41 51 58 59 59 58 59 59 58 58 57 57 57 58 59 60 60 59
22 22 24 28 24 26 26 25 15 10 18 19 18 19 18 22 32 33 34 34 39 39 39 35 31 31 39 51 57 59 58 57 59 59 58 57 57 59 58 58 59 59 58 58
11 11 18 23 26 22 22 23 17 13 14 20 25 19 25 33 34 35 37 40 42 45 48 43 36 37 44 51 57 58 57 57 58 58 58 57 57 57 57 58 57 59 59 59
13 10 19 24 26 25 24 23 22 22 22 19 16 16 28 35 35 36 39 41 43 45 48 48 40 46 48 54 59 59 57 57 57 57 57 56 57 57 57 58 59 60 60 60
19 15 19 24 27 27 26 30 29 28 22 17 15 17 35 36 37 39 41 41 43 44 45 50 45 48 50 57 57 58 57 57 57 57 56 57 57 57 58 59 58 57 58 58
29 21 16 19 24 21 27 28 30 31 29 23 22 32 39 37 38 38 38 40 41 41 42 46 50 52 55 56 56 58 57 57 57 57 56 56 57 57 58 58 57 57 58 58
34 35 20 14 18 21 21 26 28 29 23 28 29 31 39 39 38 38 38 38 38 39 40 41 45 48 54 55 56 56 56 55 56 56 56 57 56 56 57 56 56 57 57 57
34 30 23 19 20 21 21 22 26 32 34 28 28 32 40 39 39 39 37 37 37 37 37 38 40 42 45 47 51 53 56 56 57 56 56 56 56 57 56 56 56 57 56 57
33 27 27 20 23 31 31 22 28 31 30 27 27 23 37 37 39 40 37 37 35 34 35 35 36 38 40 42 43 44 46 51 54 53 52 53 54 55 55 55 57 58 57 56
32 26 24 25 21 25 29 33 26 28 27 24 20 16 20 31 38 41 37 36 35 34 33 33 34 35 36 38 39 40 41 43 45 45 45 45 46 47 48 49 52 54 52 51
34 26 26 26 29 26 25 29 20 17 15 16 18 19 31 40 42 39 37 36 34 34 32 32 33 33 33 34 36 37 38 38 40 40 41 41 42 43 44 45 46 44 43 43
30 30 26 20 28 25 24 23 19 15 17 19 25 31 37 39 40 38 37 35 34 34 32 32 33 32 32 32 32 35 36 38 37 37 37 39 41 41 42 43 41 40 39 38
32 29 29 25 26 19 19 17 16 16 19 27 28 35 38 38 36 36 37 36 34 34 34 32 32 30 31 31 32 33 33 34 35 34 36 37 38 39 41 40 38 37 36 35
25 31 26 27 19 17 13 22 22 23 32 32 31 31 38 35 34 32 34 34 33 33 34 32 33 32 30 28 28 29 29 31 30 31 31 33 35 36 36 36 36 35 35 34
25 32 29 27 18 14 27 25 27 25 25 33 33 34 35 37 36 30 32 31 31 32 32 33 33 33 33 32 28 26 27 27 28 30 30 31 32 34 34 34 35 34 33 32
26 27 26 27 19 21 29 27 27 19 31 35 34 33 32 32 30 29 30 30 32 32 32 33 33 32 32 33 33 30 28 27 27 28 28 29 31 32 33 33 34 32 32 31
21 20 22 23 20 15 33 30 30 35 36 35 33 30 28 27 28 28 29 30 32 32 34 34 32 28 26 26 26 26 28 30 30 29 27 28 30 29 30 32 33 32 31 31
27 32 32 31 32 34 33 32 34 35 35 34 32 30 28 28 28 29 28 30 31 33 28 25 24 24 24 24 24 25 25 25 26 27 28 28 28 28 29 30 30 30 30 31
30 30 32 33 31 31 32 32 32 32 31 30 29 30 30 28 29 28 28 28 28 29 25 23 23 23 23 24 24 24 24 25 24 24 24 25 25 25 25 24 26 26 29 28
30 30 29 31 31 31 30 34 34 32 31 31 32 31 30 30 29 28 26 26 27 28 29 23 22 23 23 23 24 23 24 24 24 25 24 24 24 22 22 23 24 23 26 26
29 29 29 29 31 31 30 33 34 32 31 33 29 28 28 28 26 27 26 26 25 26 27 25 23 23 23 23 24 25 26 26 25 25 25 26 25 24 22 20 20 21 23 22

GFSCGP_sfc_dewp_084.txt.gz
Dewpoint
23 19 16 17 17 17 17 17 15 14 12 12 14 13 14 15 15 17 17 20 26 28 29 28 31 29 38 51 58 64 64 64 64 63 61 62 61 62 63 63 63 64 64 64
19 19 19 17 17 15 15 14 13 13 14 16 15 14 19 22 23 21 17 19 23 29 29 31 33 38 49 55 58 63 63 63 63 62 61 60 60 62 61 62 62 63 64 64
20 19 20 22 20 19 17 15 14 14 14 17 21 17 17 19 19 22 22 22 21 24 29 31 32 37 51 56 59 62 62 63 62 61 61 60 61 61 59 61 62 62 63 62
19 19 18 19 19 18 18 16 16 19 19 19 20 17 17 14 17 21 24 26 26 23 23 30 32 33 51 54 60 61 62 61 62 61 59 59 58 58 58 59 62 62 62 62
18 16 18 19 19 16 15 19 21 22 24 24 21 15 14 14 15 17 23 27 29 28 28 31 32 32 50 54 60 61 62 61 61 60 60 59 58 58 59 60 60 60 61 62
17 17 16 15 19 21 23 23 21 23 23 22 21 14 13 16 27 31 31 34 39 33 30 30 33 33 45 53 59 61 61 60 60 60 60 60 58 57 58 59 59 60 60 59
18 20 19 21 22 23 24 24 17 15 14 17 28 29 20 32 34 32 33 40 43 46 48 49 44 30 35 53 59 60 60 59 60 60 60 59 59 58 58 58 59 59 59 58
10 10 13 22 24 21 21 23 21 12 17 17 22 30 29 33 39 42 41 42 43 44 46 48 49 51 42 54 59 59 59 58 59 60 59 59 59 58 58 59 59 59 59 58
17 12 20 20 21 22 21 20 21 22 21 19 18 26 39 41 37 39 40 41 42 43 44 46 48 51 46 54 59 59 58 57 59 59 59 59 58 58 59 59 59 60 59 59
25 23 15 19 23 24 22 24 28 32 21 16 13 21 35 37 38 38 38 39 41 42 41 43 45 49 56 57 59 60 58 57 59 59 59 57 58 58 59 59 60 60 60 59
25 27 28 26 28 24 22 25 26 28 27 23 25 32 38 38 39 37 37 38 39 39 39 40 42 45 50 57 59 58 58 58 58 59 58 58 57 58 59 59 59 58 59 59
24 34 28 23 21 23 22 21 26 28 23 27 28 28 40 38 38 38 37 38 38 37 37 38 39 41 45 48 53 57 57 58 58 58 57 58 58 58 58 58 58 59 58 59
24 26 21 18 18 18 22 23 30 33 33 28 27 28 39 39 38 39 37 37 36 36 35 36 37 37 40 42 44 46 52 57 57 57 57 57 57 57 57 57 57 57 57 58
30 22 22 22 23 27 29 32 30 27 31 27 27 28 30 38 38 39 37 36 35 34 34 34 35 35 36 39 40 41 44 49 54 53 51 51 52 54 54 56 57 57 57 57
24 20 20 23 21 20 26 32 29 28 33 27 24 20 34 39 41 39 37 36 34 33 33 33 33 34 34 35 37 39 41 42 45 47 47 48 48 48 50 49 48 48 48 46
31 23 20 18 19 19 24 24 29 31 35 33 31 23 40 42 40 38 37 35 34 33 33 32 32 32 33 33 35 37 39 40 41 42 43 44 44 45 44 43 42 41 41 40
25 28 24 18 17 20 25 22 21 24 29 24 25 35 36 37 37 37 35 34 33 33 33 33 33 32 32 33 34 34 35 37 39 40 41 42 43 41 40 39 38 38 37 37
26 25 25 23 22 16 20 19 19 20 31 35 30 35 36 35 34 33 34 33 32 32 33 33 34 33 32 32 32 33 33 34 35 36 38 40 40 40 39 38 37 36 35 35
24 25 25 23 21 25 19 19 20 21 34 32 31 32 36 34 32 31 32 32 32 32 33 32 33 34 33 32 31 31 32 33 33 34 35 36 38 38 37 36 36 35 35 33
19 25 27 22 20 22 33 30 25 23 32 33 32 32 32 35 33 28 30 32 31 32 32 33 32 32 33 32 33 32 32 32 32 32 34 34 35 35 35 35 35 34 33 32
21 25 23 24 24 30 31 31 27 19 30 33 32 30 29 28 28 29 31 31 32 33 33 33 34 33 32 32 32 31 32 31 32 32 33 34 34 34 33 33 33 32 31 31
20 23 24 25 26 23 31 30 29 34 35 33 30 28 27 27 27 28 30 31 32 32 34 34 33 34 34 34 33 32 30 32 32 31 32 32 33 33 34 33 33 32 31 31
28 30 30 28 28 33 31 32 32 32 32 32 30 29 28 27 27 28 28 29 30 33 32 32 31 28 26 27 29 27 30 32 33 32 32 31 31 30 29 28 30 31 31 30
30 30 32 32 30 29 31 31 31 31 30 30 30 30 30 28 27 27 27 28 29 30 30 28 25 23 24 24 24 25 25 24 25 24 24 24 23 24 25 25 25 24 28 28
29 28 29 30 32 31 28 34 31 32 31 32 32 30 30 28 28 27 27 27 28 28 29 28 27 25 24 24 26 28 25 26 26 25 24 23 22 21 21 23 23 23 24 26
29 28 26 27 31 30 30 33 31 30 33 34 29 28 28 27 26 26 25 25 25 25 26 26 26 25 24 24 25 26 28 28 26 26 27 27 24 23 21 19 20 22 23 23

GFSCGP_sfc_dewp_087.txt.gz
Dewpoint
24 19 17 17 18 18 17 15 15 16 17 15 13 13 14 14 14 14 15 16 16 16 22 29 30 28 27 26 61 63 63 64 63 62 61 61 60 63 61 61 62 62 62 63
22 20 21 20 19 19 18 16 15 14 15 15 14 13 16 20 19 19 19 19 18 17 18 28 30 30 29 45 63 63 63 64 62 62 61 60 60 61 60 60 61 63 62 62
22 21 22 20 19 19 19 18 17 15 16 16 16 15 20 21 21 20 17 20 22 17 21 22 29 32 36 56 62 62 63 63 62 61 61 60 60 59 59 60 60 62 63 62
21 22 21 20 22 21 18 20 19 16 17 20 24 21 22 22 20 17 30 25 20 21 19 26 29 31 49 61 62 62 62 62 61 61 59 59 59 58 58 59 61 61 61 62
21 20 19 19 19 21 19 21 20 21 20 22 21 21 21 22 19 16 42 42 30 26 30 27 27 29 48 58 62 62 62 62 60 60 59 58 57 57 57 58 59 60 61 61
18 19 17 17 18 20 23 25 26 25 22 19 20 24 25 24 23 38 44 44 44 44 46 47 48 50 48 57 61 61 61 61 60 59 59 58 57 57 57 57 58 58 60 60
21 19 19 17 17 22 23 24 22 17 18 17 23 23 30 40 43 41 42 43 44 44 44 45 46 48 50 52 59 60 60 60 59 59 58 58 58 56 57 58 58 59 58 57
6 9 12 20 19 21 23 24 23 18 18 19 21 21 32 40 41 40 41 42 43 42 42 43 44 45 48 52 59 60 60 59 59 59 58 59 58 57 58 59 59 58 58 57
25 20 25 22 24 24 25 22 24 23 23 21 19 19 38 40 41 41 39 39 39 39 40 41 43 44 48 55 58 60 59 59 59 59 59 59 57 57 58 58 58 58 58 58
23 23 26 25 26 25 23 26 24 30 24 21 19 30 34 36 36 39 39 38 38 38 38 39 40 43 46 50 57 59 59 59 59 60 59 58 57 58 59 60 59 58 58 58
16 28 26 26 26 24 24 25 27 29 29 24 23 29 38 38 39 39 39 37 37 36 37 37 38 40 43 46 49 51 58 59 59 59 58 58 57 58 59 59 59 59 59 58
28 29 21 20 22 22 26 28 28 25 24 28 29 31 40 40 41 38 37 36 36 35 36 36 36 37 39 42 44 46 51 58 58 58 58 58 58 59 59 59 58 59 59 59
26 24 21 14 18 27 29 32 33 35 34 30 27 29 41 41 40 37 36 35 34 34 35 35 35 35 36 39 40 41 44 53 58 58 57 57 58 58 58 58 58 58 58 58
29 24 22 18 19 22 28 28 27 32 31 32 31 29 34 39 39 37 35 34 34 33 33 34 34 34 34 36 37 40 41 45 51 52 52 52 54 54 53 53 55 56 56 52
27 21 21 20 18 18 19 26 24 27 31 31 33 32 39 39 38 37 35 34 33 33 32 32 32 33 33 34 35 36 39 41 45 48 48 48 50 49 47 46 46 45 44 43
29 22 25 20 21 21 16 17 20 25 32 33 34 35 40 40 38 35 34 33 32 32 32 32 32 32 32 33 34 35 36 38 42 43 44 45 44 43 43 42 41 41 39 38
22 22 24 16 20 22 20 22 21 27 32 32 31 37 37 35 34 34 34 33 32 32 32 32 32 32 32 32 33 33 35 36 37 40 41 41 40 39 38 38 38 37 36 35
21 23 25 20 21 15 18 25 28 34 35 36 37 35 35 33 32 31 32 31 31 31 31 32 33 33 34 34 33 33 33 34 35 36 39 39 38 37 37 36 35 35 34 33
23 25 23 20 19 22 23 34 33 31 33 32 31 31 34 32 30 28 30 31 31 32 32 32 33 33 33 33 34 33 33 33 33 33 35 37 37 36 36 35 34 34 33 32
28 28 23 24 19 16 30 34 33 34 30 31 30 29 30 33 30 26 30 31 31 32 32 32 33 32 32 32 33 32 32 32 32 32 33 34 35 36 35 34 34 33 31 30
23 25 22 23 20 26 32 31 31 25 28 30 28 27 27 25 26 29 31 31 32 32 32 33 34 32 32 33 32 30 30 30 32 33 33 33 34 34 34 34 33 32 31 30
23 24 24 25 22 21 30 30 26 34 32 29 28 26 25 26 28 28 28 29 32 32 33 34 32 33 35 34 32 30 29 32 32 32 31 31 31 31 32 33 33 33 31 29
28 31 27 27 26 33 31 31 33 32 32 30 28 27 27 26 26 27 26 27 28 32 31 32 31 30 30 31 30 29 31 32 30 28 27 27 28 28 28 27 29 31 31 29
29 29 30 30 29 29 32 33 33 34 31 29 29 28 26 24 24 24 25 26 25 28 29 28 26 25 26 28 29 29 27 26 27 26 25 25 25 25 25 25 25 25 26 26
28 28 28 30 31 29 30 33 34 33 31 30 30 28 28 26 26 26 25 24 25 25 26 26 25 25 25 26 27 28 28 27 25 23 22 22 21 22 22 23 23 23 25 23
29 27 24 24 30 29 30 33 32 30 32 30 27 27 27 26 24 25 23 24 23 23 24 23 23 23 24 24 26 27 27 28 27 28 26 24 21 20 19 19 19 23 23 23

GFSCGP_sfc_dewp_090.txt.gz
Dewpoint
24 19 17 16 18 18 19 18 17 17 16 17 14 14 14 16 16 16 19 19 18 16 18 19 26 28 27 27 57 63 65 65 65 64 63 62 62 62 62 62 62 63 63 63
24 19 21 19 19 19 18 17 16 17 16 15 14 13 15 16 16 18 19 21 21 20 20 20 20 29 30 32 55 63 64 64 64 64 62 61 61 61 63 61 61 61 61 61
23 23 23 21 20 19 19 18 18 18 19 18 16 17 19 21 23 24 24 28 42 42 29 22 20 25 30 38 60 63 63 63 63 63 61 60 59 59 60 61 59 60 61 61
22 22 22 22 21 19 17 22 21 20 19 15 23 18 19 22 22 23 24 44 43 43 45 36 38 41 41 42 59 62 63 63 62 61 60 59 58 57 59 60 58 59 60 60
21 20 19 18 19 20 19 23 23 21 21 21 19 20 18 28 39 41 43 44 44 43 43 45 47 48 50 57 60 62 63 62 61 61 60 59 58 57 58 58 58 58 59 60
19 20 19 18 18 19 24 25 25 25 24 20 19 19 22 36 38 37 42 43 44 43 42 44 46 47 47 51 61 62 62 61 61 60 60 59 58 57 57 58 58 59 59 60
20 20 21 20 17 20 20 23 21 19 18 18 20 21 25 37 39 39 41 43 43 42 41 42 43 45 47 50 53 62 62 60 61 59 59 58 58 57 57 57 58 59 59 59
12 12 15 25 20 17 21 23 22 18 17 14 21 20 32 39 39 39 44 42 41 41 40 41 42 43 46 49 54 62 61 60 59 59 58 58 58 57 57 58 59 58 58 58
19 22 23 27 26 22 24 23 23 23 22 22 21 31 37 38 38 41 44 41 38 37 38 39 40 41 43 46 52 59 61 60 59 59 58 58 58 57 57 58 58 58 58 57
19 14 27 24 25 26 26 29 21 25 19 19 20 23 31 35 37 39 40 39 36 36 36 37 38 39 43 45 48 54 59 59 59 59 59 58 57 57 58 58 57 58 58 58
22 25 20 19 23 19 20 23 29 28 27 21 20 23 38 37 38 40 37 37 35 34 35 35 36 38 41 43 45 49 52 59 59 59 59 57 57 58 59 58 58 58 58 58
28 26 22 16 19 20 21 29 34 29 26 27 25 24 39 39 39 37 35 34 34 34 34 34 34 35 38 38 42 44 47 50 58 59 58 58 59 59 59 59 59 59 58 58
22 21 17 7 14 26 25 24 26 31 33 27 26 26 39 41 36 35 34 33 33 33 32 33 33 34 35 36 38 41 44 46 54 58 58 58 58 58 58 58 59 59 59 58
28 22 18 14 16 21 19 17 19 27 27 28 27 32 35 39 38 36 34 33 33 32 32 32 32 33 34 35 36 37 41 45 47 54 55 54 54 54 54 54 53 54 52 50
25 20 22 22 22 21 21 20 18 18 22 27 30 32 37 38 37 36 34 33 32 32 32 32 31 32 32 34 34 35 37 41 44 47 48 49 48 48 48 47 45 44 43 43
26 20 20 13 17 18 18 22 20 19 18 23 26 33 36 38 36 34 33 32 31 31 31 31 32 32 32 32 33 35 36 37 41 42 42 44 45 43 42 41 41 39 39 38
21 19 20 12 19 20 17 23 20 18 26 32 30 36 37 33 31 31 32 30 30 30 30 31 31 31 32 32 34 34 35 36 37 39 41 39 39 39 38 37 37 36 36 36
21 21 22 19 20 13 22 33 30 33 34 36 35 36 34 30 30 29 30 30 30 30 31 31 31 31 32 32 33 34 34 35 35 35 37 37 36 36 35 35 34 33 34 33
22 23 22 18 19 19 20 33 31 28 30 33 33 33 32 29 28 27 29 30 30 32 33 31 32 32 31 32 32 32 33 33 33 33 34 35 35 34 33 32 32 32 32 31
27 25 23 23 18 13 26 29 33 35 26 33 30 28 30 30 30 24 29 30 31 32 32 32 32 31 30 31 32 32 31 31 31 32 32 33 34 33 32 32 31 31 30 30
24 26 22 21 20 24 29 32 34 25 25 28 26 25 27 25 26 29 31 31 32 32 32 33 33 31 32 33 32 30 30 29 30 31 32 31 32 32 33 32 32 31 30 29
25 25 24 25 22 19 29 28 25 31 32 27 26 25 24 26 27 28 28 30 30 30 30 30 29 29 32 32 31 30 28 29 29 28 28 28 28 29 31 32 32 31 30 28
24 27 25 25 23 32 32 31 34 33 31 29 28 28 25 24 24 24 23 23 26 29 27 27 26 26 27 30 31 28 30 30 28 27 26 26 26 27 27 27 28 28 28 27
26 32 28 27 28 28 32 33 32 32 28 27 26 25 24 21 22 21 21 22 22 25 25 25 24 24 25 28 29 27 25 27 27 25 25 25 25 25 25 25 26 25 25 25
26 27 27 26 28 29 29 31 32 29 29 28 28 27 26 24 22 22 21 21 21 22 23 23 23 23 24 26 27 29 32 28 25 25 24 23 23 24 24 24 24 24 25 25
28 26 24 20 27 27 28 30 31 30 28 26 24 24 24 23 21 19 20 21 21 21 21 21 21 21 21 22 24 27 28 28 27 24 22 21 20 19 19 19 21 25 24 24

GFSCGP_sfc_dewp_093.txt.gz
Dewpoint
21 17 16 14 17 18 19 19 17 17 18 17 17 16 16 16 16 16 17 18 19 22 33 38 25 21 24 26 28 51 64 65 66 65 64 64 63 63 63 64 64 64 64 64
23 19 20 21 19 18 17 16 16 17 18 18 16 16 18 17 17 17 19 27 42 43 43 45 46 39 24 26 36 49 62 65 65 65 64 63 64 64 63 63 63 64 63 62
22 23 25 22 21 19 19 17 17 18 19 20 17 16 17 20 26 41 43 44 44 43 42 43 45 47 48 42 41 56 61 64 64 64 62 60 61 61 61 62 62 62 62 61
24 24 23 23 21 21 19 21 21 21 19 17 18 16 18 20 39 41 41 42 43 43 43 43 44 46 47 47 50 56 61 63 64 64 61 60 60 60 61 62 62 61 60 61
19 21 22 21 21 22 21 24 22 23 20 22 20 18 16 33 36 38 37 40 42 43 42 42 43 44 46 48 50 57 62 63 64 62 61 60 59 59 59 59 60 59 60 61
19 20 19 18 19 20 22 24 24 24 23 19 16 19 18 34 37 38 39 43 43 42 41 41 42 43 43 47 51 59 62 62 62 62 61 60 58 57 58 58 58 58 59 60
21 20 20 21 19 21 19 19 17 16 18 17 20 20 21 37 38 39 40 43 41 41 40 39 39 41 42 44 48 56 62 62 61 61 60 59 58 58 57 58 58 57 58 58
16 15 22 26 25 22 20 20 19 15 18 13 20 19 23 39 40 42 44 41 40 39 38 38 38 39 41 43 46 52 62 61 61 61 60 59 58 58 58 58 58 58 57 58
17 20 19 25 20 25 23 21 22 21 21 20 20 24 36 39 38 41 41 39 37 37 37 36 37 38 40 42 44 48 60 60 61 60 59 59 58 58 57 57 58 58 58 58
18 10 23 17 24 23 20 26 22 26 22 18 19 21 24 33 35 39 38 36 35 35 34 34 35 37 40 41 43 46 52 60 59 59 59 59 58 58 57 57 57 57 56 57
23 19 18 12 19 17 16 20 27 30 27 22 19 20 34 34 37 37 35 35 34 33 33 33 34 35 38 40 41 44 47 58 59 59 59 58 57 57 57 57 56 56 57 57
25 23 21 14 18 20 20 30 30 26 24 25 27 24 37 37 36 35 34 33 33 32 32 32 33 34 35 38 40 41 43 48 55 59 59 58 58 58 58 57 57 57 56 56
20 19 13 3 14 21 21 20 21 24 28 24 23 24 35 37 35 35 34 33 32 32 32 32 32 32 33 35 38 39 41 44 48 57 58 58 58 58 58 59 58 58 57 57
26 21 16 11 12 20 20 20 21 22 19 22 23 24 31 36 38 35 33 32 32 32 31 32 31 32 32 34 35 37 38 42 44 47 53 55 57 57 56 56 56 55 54 52
24 19 21 21 21 18 16 17 17 19 19 19 18 23 26 36 35 35 32 31 30 30 30 31 30 31 32 33 34 35 37 39 42 43 43 44 49 51 49 48 46 45 45 44
25 19 19 16 13 12 15 18 19 19 19 19 17 18 37 37 35 34 31 30 29 30 30 31 30 31 31 32 33 34 35 37 39 39 39 40 41 42 41 41 41 40 39 40
21 19 18 11 17 19 15 21 28 20 19 23 20 28 36 33 30 29 29 29 29 29 30 30 31 31 31 32 32 32 34 35 36 37 37 36 37 36 36 36 36 36 36 37
21 19 18 16 17 11 19 31 32 30 32 34 35 34 33 29 29 29 29 28 29 30 30 30 30 30 31 32 32 32 32 33 33 34 35 35 34 33 33 33 33 33 34 34
21 21 16 13 16 17 20 30 29 28 29 33 33 32 30 29 27 26 29 30 30 31 31 31 32 31 31 31 32 32 31 30 30 31 32 33 34 33 32 31 31 31 31 31
24 23 21 23 11 10 22 28 30 34 24 30 30 29 32 29 29 24 29 31 31 32 32 31 32 32 31 31 31 29 28 28 28 30 30 32 32 32 32 31 30 30 30 30
24 24 19 20 18 21 27 30 33 23 23 28 26 26 27 24 26 29 31 30 31 29 30 29 28 30 31 31 29 26 26 25 28 29 30 30 30 32 32 31 31 30 30 29
25 22 22 23 21 18 29 28 23 29 30 28 26 26 25 26 26 26 26 26 27 25 26 26 27 27 28 28 28 26 26 27 27 27 27 27 28 29 30 29 29 29 29 28
23 26 23 23 22 31 31 29 31 32 30 28 27 26 24 23 21 21 22 21 22 24 25 24 25 25 27 28 25 25 27 26 25 25 25 26 26 26 27 26 27 26 27 26
26 30 27 26 27 27 30 30 31 29 27 27 27 25 23 20 20 19 19 19 19 21 22 23 22 22 23 26 28 27 26 25 24 24 24 25 25 25 25 25 25 24 24 24
25 26 26 25 28 28 29 30 29 28 28 28 27 26 24 21 20 21 20 19 19 18 20 21 20 21 21 23 25 27 30 26 24 23 24 23 23 23 24 25 25 24 26 25
28 26 24 20 27 27 27 29 31 27 26 27 24 22 23 21 19 18 18 20 19 18 18 18 18 19 19 21 22 24 27 28 25 21 21 21 21 21 21 23 24 28 28 28

GFSCGP_sfc_dewp_096.txt.gz
Dewpoint
21 18 15 16 18 19 19 18 18 17 18 17 17 17 17 19 17 17 19 32 43 43 44 44 44 46 47 47 39 27 47 63 66 66 64 64 63 64 65 64 64 64 63 63
21 18 19 18 17 17 16 15 15 17 18 18 17 17 19 19 18 33 41 42 43 43 43 43 43 45 47 47 48 45 37 59 65 64 65 64 64 64 64 64 64 64 64 63
21 21 23 22 21 19 19 17 17 17 19 20 18 17 17 18 35 42 42 42 43 43 42 42 42 44 45 45 47 48 50 54 64 64 65 61 63 62 61 62 63 63 64 63
23 24 23 23 22 21 19 21 21 20 20 17 19 15 14 28 35 39 39 38 42 42 42 41 42 42 43 44 46 47 50 53 63 64 64 62 61 60 61 62 62 63 63 63
22 21 23 22 22 23 21 24 23 22 20 21 20 17 18 32 33 37 37 41 43 41 41 40 40 40 41 43 44 47 50 55 62 64 63 62 61 61 61 61 56 60 62 62
20 21 19 20 21 23 22 23 24 24 23 17 17 17 16 23 35 36 39 42 42 40 39 39 39 39 40 43 44 45 49 58 63 63 63 61 60 58 60 61 60 61 61 61
20 19 20 23 19 22 21 18 15 14 17 15 20 19 19 28 37 39 41 42 41 39 37 37 37 37 38 40 42 44 47 54 63 62 62 61 60 58 59 60 60 60 60 60
16 14 22 25 25 23 22 19 17 13 17 15 19 18 21 36 39 42 42 39 38 37 36 36 36 36 37 39 41 43 46 50 62 62 61 61 58 58 58 59 59 59 60 60
21 21 22 19 18 24 23 19 24 19 22 19 18 21 27 38 39 41 38 37 36 35 35 34 35 36 36 38 41 42 44 48 60 61 60 59 58 58 58 58 59 59 59 58
17 8 22 17 22 20 18 25 24 25 20 16 18 21 23 32 35 37 35 35 34 33 33 33 33 35 36 38 39 42 44 47 60 60 60 59 59 58 58 58 58 58 58 58
21 16 15 14 17 13 12 20 28 28 27 23 19 20 35 35 36 35 34 34 33 32 32 32 32 33 35 37 39 39 43 46 51 59 59 58 58 58 58 58 58 57 57 57
24 24 16 13 19 23 21 30 28 23 22 24 25 22 36 35 34 34 33 33 32 32 31 31 31 32 33 35 36 37 40 44 47 51 58 57 57 58 57 57 57 56 56 56
19 19 8 4 13 16 20 20 23 24 24 19 18 20 33 37 36 35 34 34 32 31 30 30 30 31 32 33 35 36 38 42 44 48 55 58 58 58 57 57 57 56 56 55
25 20 11 2 8 21 19 20 21 21 10 14 14 15 18 30 34 34 34 33 32 30 30 30 30 31 32 32 33 34 36 39 40 42 44 46 47 57 58 58 58 57 57 55
23 17 21 19 21 18 18 13 11 15 16 15 8 13 17 30 33 34 34 33 31 30 30 30 30 30 31 32 32 33 34 36 39 37 38 39 41 42 47 51 49 47 46 46
24 20 18 16 17 14 12 14 16 18 18 18 18 17 27 35 34 31 30 30 29 28 30 30 29 30 31 31 32 32 33 34 35 36 37 36 37 37 37 40 41 41 41 40
20 18 16 10 17 14 6 15 26 27 28 28 19 20 32 30 28 28 28 29 29 28 29 29 30 30 30 31 32 32 32 32 33 33 35 36 36 35 34 34 36 37 37 36
21 18 17 14 15 1 19 30 30 28 30 29 31 33 33 28 28 29 30 28 29 28 29 29 30 30 30 31 30 30 32 31 30 31 32 33 34 34 34 32 32 33 34 34
22 21 15 9 14 14 20 27 26 26 25 30 30 31 29 28 27 26 29 29 30 31 30 30 31 30 30 29 29 28 28 29 29 30 30 32 32 32 32 32 32 31 31 31
23 23 21 20 10 7 20 26 29 32 22 28 28 29 30 29 27 23 28 29 29 30 29 28 29 30 29 29 28 27 26 26 26 28 29 30 31 31 30 30 30 31 31 30
22 23 18 18 15 18 25 28 30 22 20 27 27 27 30 24 26 28 28 26 27 28 28 28 28 28 27 28 27 25 24 24 26 28 28 28 29 29 30 29 29 29 29 29
23 21 21 21 18 13 27 25 21 26 29 28 27 26 24 24 24 23 23 23 24 24 25 26 26 26 27 26 26 24 24 25 25 25 25 25 26 27 27 27 28 28 28 27
18 21 21 23 20 29 29 28 30 30 28 27 26 25 23 21 20 20 20 19 20 22 23 24 24 24 25 27 26 24 26 26 24 23 24 24 24 24 25 24 24 25 26 26
26 30 25 25 27 27 29 29 29 28 26 26 25 23 22 19 18 17 16 16 17 19 20 21 21 20 21 24 26 28 26 25 24 23 23 23 24 23 24 24 24 24 24 24
24 26 25 25 27 27 28 29 29 28 27 24 24 23 22 20 19 19 18 16 16 16 18 19 19 19 20 21 22 24 27 24 22 22 22 22 21 22 23 24 24 24 27 26
27 24 22 18 27 26 26 30 30 27 25 25 22 21 22 20 19 19 18 19 17 16 17 16 16 16 17 18 19 21 24 26 25 21 20 20 21 21 21 21 20 27 28 28

GFSCGP_sfc_dewp_099.txt.gz
Dewpoint
23 20 18 17 19 18 20 18 17 18 18 15 17 18 19 21 21 21 24 42 42 42 44 44 45 45 46 48 48 49 50 51 47 64 64 63 63 64 65 65 65 65 65 64
19 19 20 19 18 17 17 16 14 16 18 18 19 19 20 21 21 24 40 40 42 43 42 43 43 44 45 46 47 48 49 50 49 57 63 63 63 64 65 66 65 65 64 64
18 20 22 18 17 16 17 15 18 18 19 21 20 17 17 19 35 42 41 41 43 42 41 42 42 43 44 44 45 45 48 49 51 53 62 64 64 65 64 65 64 65 64 63
24 24 21 20 19 20 18 21 21 20 19 16 20 12 16 23 28 38 38 42 42 41 41 40 41 41 42 42 43 43 45 48 51 54 60 62 60 59 62 63 64 64 64 63
26 24 24 23 21 23 21 24 22 22 21 20 19 16 17 25 30 33 38 42 42 41 39 39 39 39 39 40 40 42 44 46 50 55 59 62 61 62 63 64 63 63 64 62
22 21 23 23 24 23 23 23 24 24 23 17 17 15 13 18 28 34 38 42 40 39 38 38 38 38 37 39 40 41 43 45 48 56 59 62 62 62 63 62 62 63 62 59
18 18 19 21 18 22 21 20 13 13 17 11 18 17 15 21 33 37 41 40 39 37 36 35 35 36 37 37 39 41 42 44 47 52 61 62 62 62 63 62 61 60 59 58
15 15 21 21 23 21 20 18 12 9 12 13 20 17 20 33 41 41 38 37 37 35 34 34 34 35 36 37 38 40 42 43 47 50 62 63 62 62 63 63 60 60 59 60
20 20 24 19 19 23 22 20 24 19 21 16 14 19 28 37 41 38 37 36 35 34 34 34 34 35 35 36 37 39 41 42 46 51 62 62 61 60 60 63 63 62 62 61
17 12 21 17 22 14 23 26 26 27 15 9 14 19 23 34 36 36 35 35 34 33 32 32 32 33 35 37 37 39 40 42 46 50 61 60 60 60 60 60 60 60 60 59
22 16 14 15 14 10 6 14 28 27 27 20 15 21 34 34 35 34 34 34 33 32 32 31 32 33 34 35 36 37 38 41 45 46 58 60 60 59 59 59 60 60 59 59
23 20 9 13 20 21 24 27 26 19 20 24 24 23 35 36 35 34 33 33 32 32 32 31 31 32 33 33 34 35 37 39 43 44 50 58 59 59 59 59 59 59 58 58
20 15 3 8 17 18 18 19 20 19 22 17 19 19 36 35 33 33 33 33 32 31 31 31 31 31 32 32 33 34 36 37 40 42 43 45 46 56 58 59 57 58 57 57
25 18 6 0 12 18 15 18 18 19 21 16 15 11 12 15 26 31 32 32 31 30 30 30 30 30 31 31 32 33 34 35 37 39 40 40 42 43 49 57 58 58 58 58
24 16 18 16 19 19 18 15 14 11 11 12 -1 7 12 16 23 32 31 30 28 28 28 29 29 30 30 30 31 32 32 33 35 36 37 38 38 38 39 44 44 55 53 50
24 21 18 15 17 17 14 13 11 11 13 15 18 21 25 26 33 31 30 30 29 27 28 28 28 28 29 30 30 31 32 32 33 33 34 36 37 37 36 36 38 40 42 41
19 20 14 5 14 11 6 12 12 21 25 25 23 25 29 31 30 28 28 29 28 28 27 28 28 28 29 29 29 30 31 32 30 31 32 33 35 35 36 35 34 34 35 36
21 18 17 10 13 -2 23 27 28 25 27 28 28 31 32 29 28 29 30 29 29 28 28 28 29 29 29 29 29 29 29 30 30 29 30 31 32 33 35 34 33 32 32 33
21 20 17 14 13 12 23 26 26 25 24 27 26 30 28 28 27 27 30 30 28 28 28 28 29 28 29 28 28 28 27 28 28 28 28 30 30 30 31 32 32 32 32 31
21 22 19 19 13 10 21 24 26 30 21 26 26 26 27 29 26 23 28 28 27 28 28 28 29 29 27 29 28 26 26 26 26 28 29 30 30 29 28 29 30 32 31 30
21 21 18 18 17 19 25 26 28 20 20 26 26 26 30 23 24 26 26 25 26 26 27 27 27 27 29 28 28 26 25 25 27 28 28 28 29 29 29 29 30 29 29 29
22 20 19 19 18 15 26 23 20 26 29 27 26 26 23 23 23 23 23 22 24 24 24 24 25 25 26 27 26 26 25 27 26 26 27 27 27 28 30 28 29 30 30 28
22 24 23 23 22 29 28 27 29 29 26 26 25 25 23 21 20 20 20 20 21 22 22 22 23 22 23 24 25 25 26 26 26 26 25 27 27 28 29 29 28 28 29 28
26 29 25 25 26 27 28 29 28 28 25 25 25 23 22 20 19 18 19 19 19 20 21 20 19 19 21 23 24 24 24 22 23 23 24 25 26 26 27 26 27 27 28 28
23 25 25 24 27 28 28 28 28 27 26 24 25 24 22 20 20 19 18 19 19 19 19 19 19 19 20 21 22 23 25 24 20 21 23 23 23 24 23 26 27 27 30 28
24 24 24 22 27 26 27 29 29 26 25 25 22 20 20 19 19 19 18 19 18 17 18 17 17 17 18 19 20 21 23 24 24 22 19 21 22 22 21 21 23 25 28 28

GFSCGP_sfc_dewp_102.txt.gz
Dewpoint
25 22 19 20 20 18 17 16 16 16 17 17 16 11 11 18 21 22 21 27 34 39 41 41 44 45 46 47 47 48 50 52 52 51 47 56 59 64 63 64 65 66 67 67
23 23 24 21 19 17 19 16 15 15 14 12 14 16 18 19 20 20 22 35 38 39 39 41 43 45 46 46 48 48 48 49 50 51 51 51 57 59 61 63 66 66 66 67
25 25 20 17 19 18 18 15 14 10 16 20 20 17 17 18 21 30 34 38 40 40 40 41 41 43 45 45 46 46 47 48 50 52 52 51 57 59 62 64 66 66 66 66
27 25 23 21 19 17 15 14 13 16 19 14 19 8 14 15 24 31 35 38 40 40 40 40 40 41 43 44 44 44 45 46 47 50 51 53 52 56 59 61 64 65 65 65
28 25 26 26 20 17 16 18 21 20 20 19 17 14 9 15 19 28 35 39 40 40 39 39 39 39 40 42 42 41 43 44 45 47 49 53 53 59 58 60 63 64 64 64
33 33 32 30 30 28 23 22 22 22 20 17 15 13 8 14 19 27 36 40 40 39 39 38 38 38 39 41 41 40 41 41 43 45 48 52 57 57 58 59 62 63 64 64
30 28 23 25 23 26 25 21 18 16 16 12 11 11 10 19 28 32 39 39 39 39 38 37 36 37 38 39 40 39 39 40 41 44 47 52 58 57 61 60 62 62 62 63
19 18 18 21 20 19 23 19 17 12 10 8 17 12 24 37 39 40 39 39 39 37 37 35 35 36 37 38 40 39 38 39 41 44 48 52 59 59 62 62 62 62 62 62
18 18 21 19 21 22 19 19 18 17 17 15 11 18 35 38 38 38 37 37 37 36 35 35 35 36 37 38 39 38 38 38 40 44 47 52 63 62 63 63 63 62 64 62
21 18 20 17 19 17 24 23 24 24 15 10 7 11 18 33 33 31 32 35 36 35 34 34 34 35 37 38 39 38 37 38 39 43 46 51 62 62 62 63 63 61 62 61
21 18 17 16 16 13 16 22 27 26 23 16 12 19 33 32 30 30 31 34 35 35 34 33 33 34 36 37 37 36 36 37 38 41 45 48 61 61 62 62 62 61 62 62
21 16 10 12 20 17 13 19 19 19 15 21 24 19 33 33 32 31 30 33 34 34 33 32 32 33 34 35 35 34 35 35 37 39 42 46 48 55 60 60 60 61 61 61
18 14 13 11 17 18 16 20 19 20 19 17 16 15 34 33 28 28 31 31 32 32 32 32 32 32 33 34 33 32 33 34 35 37 40 41 42 45 47 58 60 60 60 60
21 12 7 3 12 17 17 17 15 18 22 14 12 7 21 18 11 18 29 31 31 30 30 30 31 32 32 32 33 31 32 34 34 35 37 38 41 41 42 46 53 59 59 58
21 10 11 13 14 13 13 12 11 10 8 11 1 1 6 19 27 28 31 30 30 30 30 29 30 30 31 31 31 31 31 32 33 34 34 36 38 39 38 39 41 45 52 57
21 18 15 9 11 12 10 8 8 9 8 6 6 11 25 29 32 32 31 30 29 29 29 28 28 29 30 29 29 30 31 33 31 31 32 34 35 37 37 37 36 37 37 40
15 21 13 -1 9 8 4 9 8 7 10 19 20 25 27 29 33 30 30 29 28 28 29 28 28 29 29 30 30 30 32 32 31 29 30 31 32 34 35 36 35 34 34 34
16 15 14 9 10 7 22 26 27 25 26 28 27 26 28 30 31 30 30 29 28 28 29 28 29 29 29 29 29 29 30 30 31 29 29 30 31 31 32 34 34 33 33 32
17 19 20 19 15 13 23 26 27 27 23 29 27 26 26 29 29 28 29 29 29 29 30 30 30 30 30 29 29 28 28 28 28 30 30 31 30 30 30 30 31 32 32 31
21 21 23 19 14 12 27 25 25 29 22 25 26 26 29 31 29 24 28 29 29 30 30 30 31 31 29 30 29 28 28 28 29 29 30 31 32 31 30 31 30 31 30 29
22 22 19 19 19 24 25 26 27 22 23 26 26 26 29 26 26 27 28 27 29 29 30 30 29 28 30 33 31 29 28 27 29 30 30 30 31 32 32 32 32 32 31 29
23 21 20 19 20 17 26 25 26 27 29 28 28 27 26 26 25 25 25 25 26 28 28 28 27 26 26 26 27 29 28 30 31 30 30 30 31 32 33 32 32 32 32 31
25 28 27 25 25 28 27 27 28 30 29 28 27 26 25 23 22 23 23 24 25 26 23 22 23 23 24 24 25 26 27 29 31 30 29 30 31 31 32 31 31 32 32 32
26 29 27 28 27 27 28 27 28 29 27 28 27 26 25 22 22 22 23 23 23 24 23 21 21 21 22 23 24 25 25 22 24 25 26 27 28 29 29 28 28 28 30 30
25 27 25 27 28 27 28 29 28 28 27 26 26 25 24 24 24 23 22 23 23 23 23 21 21 21 21 21 21 22 23 24 22 21 24 25 24 25 25 26 26 27 28 27
26 29 26 26 27 29 28 29 29 27 26 25 22 21 22 22 22 22 21 21 21 21 21 20 20 20 21 20 20 21 22 21 21 19 19 22 23 24 23 23 23 24 24 25

GFSCGP_sfc_dewp_105.txt.gz
Dewpoint
28 27 26 28 29 27 26 25 26 21 20 20 19 17 16 18 16 16 19 22 22 28 36 38 42 44 46 47 47 48 50 51 50 50 50 50 47 55 59 61 64 67 66 69
26 28 28 28 26 26 26 24 24 25 23 19 18 16 14 14 14 18 20 21 27 34 35 38 40 43 45 46 47 48 48 49 49 49 50 51 52 51 55 60 63 65 66 68
24 27 28 27 28 32 31 27 23 25 27 20 16 13 15 17 18 19 19 26 34 35 37 38 40 42 44 44 46 46 46 47 49 50 50 50 52 53 55 60 61 63 66 67
26 26 27 27 29 31 29 29 23 25 21 14 16 14 16 16 17 19 28 34 35 37 38 38 39 40 42 43 45 45 46 46 46 49 49 50 50 50 48 55 58 62 65 65
29 27 27 27 28 26 30 28 27 26 18 17 17 16 16 14 16 22 30 34 38 39 38 38 39 39 39 42 44 45 45 44 46 46 47 47 49 51 53 53 58 62 65 65
35 38 33 27 25 28 33 32 26 25 21 19 23 18 15 15 15 22 31 36 39 38 38 38 38 38 39 41 43 44 43 43 44 43 44 45 47 50 53 53 57 60 65 65
33 32 35 32 31 30 32 32 24 22 22 21 17 16 19 18 18 26 35 37 39 38 38 37 36 37 38 40 42 42 41 41 41 41 42 44 47 49 52 55 57 61 64 64
32 29 31 31 29 30 29 29 22 18 17 17 18 17 28 33 36 38 38 38 38 36 36 36 36 37 37 39 40 40 40 40 40 40 41 44 46 49 52 56 58 60 62 63
24 21 22 22 23 23 30 25 23 21 22 19 23 28 35 36 36 36 36 36 35 34 35 35 35 36 37 38 39 40 39 39 38 39 41 43 46 50 57 60 61 62 64 62
27 24 20 19 19 21 23 27 22 25 21 13 15 20 26 35 33 32 31 32 31 32 33 35 35 36 37 38 38 39 39 38 38 39 39 42 45 48 59 61 61 62 63 63
24 23 22 19 18 19 19 30 28 29 25 19 16 25 36 34 31 30 30 30 30 31 32 33 34 35 36 37 37 37 37 37 37 37 39 41 43 47 52 60 61 61 62 62
27 25 22 17 21 19 18 17 23 27 21 26 21 23 34 32 31 26 26 27 29 31 32 33 33 34 35 35 35 36 36 36 36 36 37 39 41 43 46 50 57 61 62 62
24 23 16 15 17 17 14 15 18 20 21 16 18 19 32 31 26 20 15 28 28 30 31 32 32 33 33 34 34 34 34 34 35 35 35 37 38 41 41 43 47 60 61 61
25 19 18 14 16 17 17 14 14 17 23 16 11 7 23 12 13 23 29 30 29 30 31 31 31 31 32 32 33 33 36 34 34 34 34 34 36 38 40 40 43 43 50 60
23 18 14 10 10 10 12 13 12 11 11 11 5 2 4 23 27 31 30 30 30 29 29 29 29 30 30 31 31 32 33 34 33 32 32 33 34 36 38 39 39 39 39 41
20 16 16 12 10 8 6 4 5 5 5 6 3 3 27 28 29 32 31 30 28 28 28 28 28 28 29 30 30 31 31 32 33 31 31 31 33 33 34 35 37 36 36 35
19 22 14 3 7 5 2 7 5 5 3 10 12 24 25 29 30 31 31 28 28 27 27 28 27 28 29 30 29 30 30 31 31 32 32 32 32 32 32 33 34 34 35 34
17 16 14 10 9 3 21 25 24 24 23 26 25 25 25 28 29 29 29 29 27 27 28 29 29 29 30 32 30 30 30 29 30 31 32 32 32 32 32 31 31 32 32 32
13 16 18 18 12 15 19 24 28 27 27 28 26 26 26 28 28 26 27 28 29 30 31 31 30 31 32 32 30 29 28 28 28 30 31 32 33 32 32 31 30 30 28 29
17 21 23 18 16 11 29 24 24 28 23 25 26 26 25 28 28 25 27 29 30 31 31 31 32 32 32 32 30 28 29 28 29 30 31 32 33 33 32 32 32 32 31 29
21 22 20 18 17 25 26 25 27 23 24 26 26 26 29 30 27 28 29 28 30 30 31 32 30 31 32 33 33 30 30 29 31 31 31 31 32 33 33 34 33 33 32 32
21 20 19 18 20 21 26 25 25 28 29 26 27 28 28 27 26 26 26 27 28 30 29 30 30 28 26 26 27 30 30 33 34 32 31 31 31 32 32 32 33 33 32 32
28 30 31 27 27 28 28 28 28 29 28 29 28 28 27 25 25 25 25 25 26 28 27 24 23 23 23 23 24 25 28 30 32 32 32 32 31 30 31 30 29 29 32 30
26 28 29 28 27 26 27 27 28 28 28 27 27 27 26 24 25 25 25 25 25 26 23 21 21 20 20 21 21 21 22 22 22 25 26 27 29 28 27 26 26 25 26 28
26 28 26 27 27 26 26 27 27 27 27 27 27 25 25 25 25 24 24 25 25 24 23 21 20 19 19 18 19 20 20 20 19 20 21 23 25 26 26 25 24 24 26 25
27 33 27 30 28 30 28 28 27 27 26 26 23 22 23 23 23 23 23 22 22 22 22 21 21 20 19 18 19 20 21 21 20 20 20 22 22 22 21 23 25 23 23 22

GFSCGP_sfc_dewp_108.txt.gz
Dewpoint
30 28 27 24 25 26 26 25 25 26 27 28 29 27 21 22 23 22 21 21 22 25 37 40 45 47 47 49 49 49 50 52 51 51 51 52 52 55 55 57 62 66 67 67
26 23 22 23 24 26 27 28 28 30 29 27 28 31 33 21 21 21 19 19 23 26 35 39 42 45 47 47 48 47 47 48 49 49 51 51 52 52 54 55 57 62 64 66
25 24 23 23 26 25 24 25 28 28 28 28 28 30 31 26 20 18 19 19 23 34 37 38 39 43 46 46 47 45 46 46 48 49 48 49 50 51 52 53 53 55 62 64
27 26 24 22 24 25 25 27 28 28 29 29 29 28 28 23 21 17 18 24 34 37 37 37 39 40 43 45 46 45 46 45 45 47 46 47 47 47 49 51 53 54 63 63
28 27 27 25 23 23 26 33 32 34 32 29 28 25 25 22 23 23 27 34 38 38 38 38 38 38 40 43 44 45 44 43 44 45 45 44 44 46 48 50 52 54 55 62
32 37 35 32 31 29 34 34 32 32 30 27 26 23 26 26 23 20 30 38 38 38 38 36 37 38 38 41 43 43 42 41 42 43 42 42 42 43 45 47 49 52 55 59
30 32 33 33 30 28 30 33 26 25 26 21 21 23 28 28 36 27 40 39 38 38 37 36 36 36 38 40 41 40 40 40 41 41 40 40 41 42 43 45 48 50 54 58
25 25 29 33 30 27 27 31 24 20 22 20 23 29 31 41 40 42 43 41 36 36 36 35 35 37 37 38 39 39 39 39 40 40 39 39 40 43 44 46 48 50 53 57
25 24 29 30 30 29 32 31 30 25 27 28 28 28 33 41 39 40 42 38 33 32 33 34 34 36 37 38 39 39 38 37 38 38 39 39 41 43 44 46 49 52 54 57
32 24 29 28 28 27 30 30 31 31 22 21 19 25 32 35 36 34 34 31 29 29 30 32 33 36 36 37 37 38 37 36 37 37 37 38 39 42 44 46 49 55 57 60
33 25 27 27 23 18 22 23 33 35 25 23 18 30 39 37 37 32 29 28 29 30 30 31 33 35 35 36 36 37 37 36 35 36 36 37 38 39 42 43 45 47 51 59
30 26 23 22 20 19 21 22 32 31 28 31 28 27 39 38 35 27 25 27 29 30 30 31 32 33 33 34 33 34 35 35 34 34 35 35 36 37 39 40 42 46 46 52
28 26 20 23 23 19 18 21 20 23 23 18 18 19 39 33 25 27 28 28 30 30 30 30 30 31 31 32 33 34 34 34 34 33 34 34 34 35 37 38 39 42 43 46
28 23 21 21 23 20 19 15 14 19 23 19 16 20 29 23 23 30 30 30 30 29 29 29 29 29 30 31 31 32 34 34 34 32 32 32 33 34 35 36 37 39 40 41
25 22 20 18 11 10 14 10 10 10 11 17 12 6 24 28 32 31 30 29 28 28 28 28 28 28 29 29 30 31 32 33 33 32 32 32 32 33 33 34 34 36 37 38
27 23 22 18 12 9 7 4 5 8 8 5 2 7 29 31 31 31 30 29 28 27 27 27 27 27 28 29 30 31 31 32 32 31 32 32 32 32 32 32 32 32 33 35
24 25 18 12 12 6 5 9 4 7 5 12 10 24 25 28 28 29 29 28 27 26 26 26 27 28 28 31 32 31 31 31 32 32 31 32 33 32 32 32 30 29 30 31
22 20 17 11 11 1 21 24 22 22 27 27 25 25 27 28 28 27 27 27 25 26 27 27 29 30 31 33 32 31 29 30 31 31 31 32 32 32 33 32 31 30 28 28
16 19 15 14 10 18 19 23 27 25 27 27 25 25 28 28 26 26 26 26 27 29 30 30 31 32 33 32 32 32 29 29 29 30 30 32 32 32 32 32 32 32 29 28
12 17 24 19 15 11 27 23 24 28 23 25 25 25 25 29 26 23 27 28 29 30 31 31 32 32 32 32 34 30 29 29 29 30 30 31 32 31 31 32 32 32 32 31
18 21 19 19 16 25 27 24 26 22 23 26 25 26 30 26 26 26 26 27 30 30 31 32 32 31 31 32 33 31 30 29 30 30 30 29 30 30 30 30 32 32 32 31
19 18 19 19 19 19 26 26 25 28 28 27 25 27 26 26 24 24 25 26 28 30 31 31 30 29 27 24 25 27 30 32 34 32 30 29 28 28 28 27 27 28 29 28
27 30 29 26 26 27 28 28 29 31 28 27 25 26 25 24 23 25 24 25 27 28 29 27 22 20 20 21 20 21 23 27 28 30 30 30 28 27 26 25 25 25 25 26
26 29 28 27 26 25 26 27 27 27 26 26 26 25 25 24 25 25 25 26 25 26 22 20 18 17 18 19 20 21 21 20 21 22 24 26 27 28 25 24 23 22 22 22
25 26 26 27 27 27 25 26 26 26 26 25 25 25 24 25 26 24 23 24 24 25 24 20 20 19 18 17 19 20 21 21 21 22 22 23 23 24 25 24 23 22 22 21
28 32 28 30 28 30 28 27 27 26 25 25 23 23 24 23 23 23 24 23 22 22 22 21 21 19 18 17 19 22 22 22 22 21 22 23 23 23 22 22 24 24 23 22

GFSCGP_sfc_dewp_111.txt.gz
Dewpoint
35 31 28 30 30 29 27 25 23 24 28 29 30 30 31 32 33 32 22 21 21 36 41 44 44 44 45 45 45 46 47 47 48 48 48 48 50 50 51 52 53 54 64 67
31 28 29 29 29 26 23 22 24 26 27 28 28 29 29 30 32 33 31 21 23 39 40 42 43 43 44 45 45 45 45 45 45 47 47 48 49 50 51 52 52 53 54 58
28 27 28 26 24 22 21 24 24 23 25 29 28 27 28 29 30 32 31 21 24 38 39 40 40 42 43 43 44 44 44 43 44 44 45 45 45 46 48 49 49 50 52 54
28 28 28 27 25 24 23 26 31 31 31 29 32 26 27 28 28 30 34 27 37 39 38 38 38 39 41 42 43 42 42 41 41 43 42 42 42 42 43 45 47 48 49 52
29 29 27 31 29 31 29 34 33 33 31 30 28 29 25 27 25 27 34 35 38 37 36 36 37 38 39 41 41 41 41 41 41 41 41 40 39 41 42 43 44 46 48 50
30 36 36 34 33 32 34 33 31 32 32 26 25 25 23 23 29 35 38 38 36 35 35 36 37 37 38 39 40 39 39 39 39 39 39 39 38 39 40 41 42 44 46 49
31 32 34 35 32 32 34 30 24 20 25 21 20 26 27 29 35 40 41 41 36 35 35 36 36 36 37 38 38 37 37 36 37 38 38 38 38 38 39 41 43 44 46 48
27 24 29 34 32 29 30 28 23 19 20 25 28 28 30 41 44 43 41 40 37 34 34 35 35 36 36 36 37 36 36 35 36 37 37 37 38 39 39 42 43 44 46 48
27 24 30 30 32 31 32 29 29 27 26 23 24 30 36 38 41 42 38 37 34 31 33 34 35 35 35 35 36 36 36 34 34 36 36 36 37 39 39 40 42 45 47 49
32 28 29 30 32 32 31 32 29 30 21 20 21 28 29 34 35 38 35 31 32 34 32 33 34 34 34 34 35 35 34 35 34 34 35 36 36 37 38 39 41 42 45 47
33 30 27 29 30 27 28 29 32 33 32 24 22 30 34 32 36 36 35 32 30 30 31 31 32 32 33 32 33 34 34 34 34 33 34 35 35 36 37 38 39 40 42 45
35 31 25 25 29 29 26 27 29 28 27 30 29 29 38 36 37 37 30 29 29 30 30 30 30 30 31 31 31 32 33 34 34 33 33 34 34 35 35 36 37 39 39 42
37 32 25 22 27 29 24 24 31 31 32 25 21 27 38 38 33 30 29 29 28 29 29 29 29 29 30 30 31 32 32 33 33 33 33 33 33 33 33 34 34 36 37 38
33 28 23 20 26 28 22 19 22 26 23 22 19 29 33 30 30 30 29 28 27 27 28 28 27 28 29 29 30 31 32 32 32 32 32 32 33 33 32 32 32 33 34 35
30 24 25 22 25 18 14 14 16 18 19 19 17 26 31 31 30 30 29 27 27 27 26 27 26 27 28 29 30 30 31 31 31 31 32 32 33 33 32 31 30 30 31 31
30 27 25 23 20 13 12 9 8 10 10 12 21 27 30 30 30 29 28 27 26 25 25 25 26 26 28 28 30 30 31 31 31 31 32 33 32 32 32 31 30 29 29 29
25 25 23 21 20 17 10 20 18 22 25 25 23 28 28 27 27 27 27 27 27 26 25 26 28 28 29 30 32 30 32 32 31 31 32 32 32 33 32 32 30 29 29 28
26 23 23 20 13 9 22 25 26 27 27 27 26 27 27 27 27 27 27 26 26 26 26 27 28 30 30 32 32 32 32 31 31 30 30 32 30 30 32 32 32 32 30 29
23 24 19 18 18 21 21 26 25 23 25 27 26 28 27 26 25 25 27 27 28 28 29 27 30 31 32 32 33 33 31 30 29 29 29 30 30 29 29 29 31 31 29 29
17 23 23 21 17 12 23 26 28 30 19 25 25 25 29 26 23 21 27 28 29 30 29 30 31 31 30 32 32 32 31 30 30 29 27 28 28 27 27 27 28 30 30 29
19 22 20 21 19 23 29 26 29 16 17 25 26 26 27 22 22 25 28 26 27 30 31 31 30 30 30 31 30 29 31 30 31 31 29 27 27 25 25 25 26 26 26 25
21 21 21 21 18 17 27 27 23 24 27 26 27 25 23 24 25 25 25 24 27 29 30 30 29 27 26 22 23 24 26 29 29 30 30 27 26 26 25 23 23 24 23 23
20 24 24 25 23 28 27 28 31 30 27 27 27 27 25 24 24 23 23 25 26 27 29 26 20 18 19 20 20 21 22 25 25 25 26 27 26 25 25 23 21 20 21 21
30 32 24 25 25 25 27 28 29 28 27 26 26 25 24 23 22 22 24 24 24 24 21 19 17 17 18 20 22 22 22 21 23 22 23 24 24 25 24 23 21 20 19 19
27 28 26 27 27 26 27 27 27 27 26 26 25 24 24 23 23 23 23 22 21 21 21 20 19 18 18 19 20 22 23 23 22 23 22 22 23 23 23 24 23 23 22 21
31 27 23 25 27 27 27 28 26 26 25 26 25 25 25 25 24 23 22 22 21 20 20 19 19 18 17 17 18 20 21 24 22 22 23 22 22 23 23 22 22 26 23 21

GFSCGP_sfc_dewp_114.txt.gz
Dewpoint
34 31 28 28 31 30 29 27 26 27 25 27 25 26 28 29 30 28 29 31 32 41 44 44 44 44 44 44 44 44 44 45 44 45 45 46 46 46 48 49 51 52 55 56
33 31 32 31 31 31 30 28 26 24 25 25 25 27 28 29 28 27 28 30 40 42 42 43 43 43 43 43 42 42 42 42 42 43 45 45 44 47 46 48 48 49 50 52
30 29 31 30 29 28 27 25 23 22 30 28 27 27 26 26 29 29 29 30 39 42 41 41 41 42 41 41 41 41 41 41 41 42 42 41 42 43 44 43 44 46 47 48
30 30 29 28 27 27 25 31 31 31 29 25 31 24 24 24 25 28 28 38 41 41 39 39 39 40 39 39 40 40 40 39 40 40 40 39 39 39 40 41 42 43 45 47
29 29 28 27 27 30 30 34 32 32 30 29 27 27 22 23 24 26 38 42 42 42 40 37 38 38 38 38 38 37 37 37 37 38 39 39 38 38 39 40 41 42 44 46
30 35 32 30 33 32 35 32 31 31 30 21 23 25 23 24 31 36 41 40 40 39 37 36 37 37 37 37 36 36 35 34 36 37 37 37 37 37 38 39 40 42 44 45
31 32 35 36 33 33 32 28 25 18 21 19 25 24 25 39 41 41 39 39 39 37 37 35 35 35 36 36 35 35 35 34 34 35 35 36 36 37 38 38 40 40 42 44
28 25 32 34 32 30 30 28 24 17 19 22 25 23 32 38 37 39 39 39 39 37 36 34 34 34 34 34 33 33 34 34 34 34 34 35 36 37 37 37 38 39 42 43
27 26 30 34 34 31 31 27 28 27 27 20 22 28 34 36 35 35 35 37 37 37 35 34 34 33 33 33 34 33 34 34 34 34 34 35 36 36 37 37 38 39 40 41
30 26 29 31 32 33 30 32 28 28 19 19 21 27 27 33 33 34 34 33 34 36 34 33 33 32 32 32 33 33 34 33 34 33 33 34 34 35 36 37 37 37 39 40
33 30 28 32 30 30 31 29 32 30 28 22 21 25 35 33 35 34 34 34 32 30 29 30 31 32 31 31 32 32 32 32 32 32 33 33 33 34 35 35 35 36 37 38
37 33 29 25 31 31 30 29 32 25 23 27 25 28 38 36 37 33 31 31 30 30 29 28 29 29 30 30 31 31 31 31 32 32 32 32 32 32 32 33 33 34 34 36
37 34 28 27 28 29 27 27 28 30 32 27 21 25 38 37 33 29 28 28 28 28 28 28 28 28 28 30 30 31 30 31 32 32 31 32 32 31 31 31 31 31 32 32
40 35 31 24 25 27 23 23 29 30 26 23 21 28 32 33 29 28 27 27 27 26 27 26 26 26 28 29 29 30 30 31 31 31 32 32 31 32 31 31 30 30 30 30
33 27 28 26 27 26 23 14 18 25 24 21 21 28 32 30 29 28 27 26 25 25 25 25 25 25 27 28 28 29 29 31 30 30 31 31 32 32 32 32 32 30 30 29
31 27 30 28 26 19 12 11 12 11 19 28 28 29 31 30 28 27 26 26 25 24 25 25 25 25 26 26 27 27 28 29 29 28 30 30 30 30 32 32 31 30 29 29
29 29 28 25 27 25 19 16 22 25 25 26 23 27 27 26 26 26 27 26 25 24 25 26 27 27 28 30 31 30 29 29 28 29 29 29 29 29 30 31 30 30 29 27
26 27 27 23 25 19 23 29 28 26 26 28 28 28 27 26 26 26 27 26 26 25 25 27 28 30 31 32 32 31 30 30 27 27 27 28 27 28 28 28 29 28 29 28
28 29 26 19 18 22 22 26 27 25 23 27 28 27 26 25 24 25 26 27 27 28 28 29 30 30 30 29 32 32 30 31 28 27 26 26 25 24 25 25 26 27 26 26
27 26 24 22 15 14 22 27 28 26 16 25 26 28 26 24 20 21 27 28 28 27 30 29 27 24 26 28 29 31 31 29 29 28 27 26 26 24 22 21 23 24 24 23
19 21 17 21 19 23 28 28 30 14 17 25 25 23 26 25 19 25 27 27 28 29 29 27 27 26 26 28 28 25 26 25 28 30 27 26 25 24 23 22 22 22 22 22
19 19 21 21 18 16 27 27 23 22 26 26 23 22 22 24 24 24 23 23 25 27 27 25 24 24 24 23 23 24 24 25 26 26 27 26 25 25 24 22 22 21 21 20
19 22 22 23 19 27 28 27 28 27 25 26 23 23 22 21 22 21 20 17 22 24 24 21 19 18 20 21 23 22 23 25 24 24 24 25 25 24 24 22 22 21 21 21
30 29 23 23 26 26 28 29 29 28 26 27 26 25 23 21 18 18 18 19 20 20 19 18 17 17 19 20 21 22 23 23 23 21 22 23 23 24 24 23 22 19 18 20
28 28 26 25 27 26 28 28 28 27 27 26 25 23 22 21 20 21 21 19 17 18 19 19 17 17 18 18 19 20 21 22 22 23 22 22 23 23 23 24 25 20 19 21
30 26 22 20 26 25 26 28 27 26 25 24 23 23 23 22 22 21 20 20 19 18 17 16 15 14 15 15 16 17 19 21 20 20 22 22 21 21 21 20 20 24 18 18

GFSCGP_sfc_dewp_120.txt.gz
Dewpoint
33 32 30 31 30 28 27 25 25 26 28 29 28 27 26 26 28 28 28 28 33 42 42 40 39 39 39 40 39 40 40 40 41 42 43 43 41 44 44 43 44 46 46 48
33 31 32 31 31 30 30 29 28 29 29 27 25 26 27 28 28 35 39 38 41 41 39 38 37 37 36 36 36 36 37 38 38 39 41 41 41 43 43 41 43 43 44 46
32 31 34 32 31 29 29 29 29 28 28 29 28 25 25 30 38 41 39 39 39 38 37 37 36 37 37 36 35 34 35 35 37 38 39 39 40 40 40 40 40 41 43 45
33 34 31 32 31 31 29 30 30 28 28 23 28 22 28 32 34 38 38 38 39 38 37 36 36 35 35 36 37 37 36 35 35 36 37 37 38 37 39 39 40 40 42 43
27 29 30 29 28 30 28 30 29 30 28 26 27 24 24 32 31 36 37 37 37 38 38 37 38 36 35 35 36 36 37 37 34 34 35 36 36 37 38 38 38 39 40 42
29 32 30 29 31 30 33 31 29 30 27 23 25 24 21 29 32 35 35 36 36 37 37 37 36 37 36 35 35 36 34 34 35 34 34 35 35 35 36 36 37 37 39 40
29 29 32 33 31 33 31 29 24 20 21 21 24 23 26 33 35 35 34 35 35 36 35 35 35 34 35 35 35 35 34 33 34 34 34 34 34 34 35 35 36 36 37 38
26 21 31 34 30 30 29 28 26 19 17 18 25 21 28 34 34 34 34 34 35 34 35 34 34 34 34 34 33 32 32 33 34 34 34 34 34 34 34 34 34 35 35 35
26 26 33 35 33 32 30 29 30 28 27 23 22 28 33 35 34 35 35 35 35 34 34 33 34 33 34 34 33 32 32 32 32 33 34 33 33 34 33 33 33 33 33 34
28 24 29 32 32 32 30 30 27 29 21 18 19 22 23 31 32 33 34 34 35 35 34 32 32 32 33 33 33 32 32 32 32 33 33 33 33 33 33 33 32 32 32 33
29 27 27 32 31 29 30 29 29 29 27 19 19 20 26 31 32 32 33 35 33 32 30 30 31 31 32 32 32 31 31 31 32 32 32 33 32 33 32 32 32 32 32 32
32 30 26 27 31 33 32 30 30 27 22 25 19 20 34 34 34 34 34 32 31 30 29 28 28 28 29 29 30 30 31 31 31 31 31 32 32 32 31 30 30 30 30 31
37 32 27 24 28 32 31 31 30 30 30 26 20 20 34 34 35 34 32 29 27 27 26 25 26 26 27 28 29 29 30 30 31 31 30 30 30 30 30 30 28 28 29 29
38 32 27 21 21 28 30 32 33 32 28 27 24 28 31 35 34 29 27 26 26 26 25 24 25 27 27 28 28 28 30 30 30 30 29 29 29 29 29 29 29 28 28 27
35 28 31 30 31 32 30 30 31 33 32 28 28 26 31 33 30 27 26 25 25 24 25 24 24 26 27 26 28 28 28 28 28 27 26 26 27 27 27 27 26 26 26 26
33 26 30 27 30 31 30 30 30 32 34 33 30 29 33 30 28 26 26 25 24 24 24 23 25 26 27 28 28 28 28 26 26 26 25 24 24 23 24 24 24 23 23 24
31 29 28 24 28 27 26 28 26 23 25 28 28 28 29 28 27 27 26 25 24 23 24 25 26 27 28 30 30 29 29 28 26 26 25 24 24 23 22 22 21 22 22 23
31 29 29 25 27 19 23 27 28 22 27 29 29 30 29 28 28 28 27 25 25 24 23 26 26 27 28 29 30 30 29 28 25 25 25 24 23 22 21 21 20 20 20 21
32 29 26 23 22 23 23 26 24 22 21 28 29 28 27 26 25 26 27 25 23 23 26 27 27 26 25 26 29 29 29 29 25 25 24 25 23 21 20 19 18 19 19 19
30 30 28 23 16 13 18 26 28 25 18 27 28 26 25 25 21 18 26 26 25 24 25 24 23 24 25 26 28 26 25 26 25 25 24 24 23 21 19 19 19 19 14 19
28 27 24 22 20 20 24 27 25 15 18 28 28 27 25 20 19 22 24 23 24 25 24 24 24 22 24 26 24 21 22 23 25 26 25 24 24 22 21 19 19 19 17 18
24 23 22 23 20 13 28 27 20 23 25 26 25 26 22 24 25 24 22 25 24 23 23 23 22 22 23 23 23 23 20 21 25 24 25 24 23 24 22 18 19 19 20 18
22 21 18 21 19 25 28 28 27 26 24 22 23 24 25 24 24 24 24 21 19 19 21 21 20 20 20 21 21 21 23 24 24 24 22 23 23 24 20 18 17 17 18 18
26 26 19 21 23 26 28 27 26 26 24 23 24 25 24 22 19 17 18 17 12 14 17 18 18 18 18 19 19 20 21 22 21 20 20 21 21 20 19 17 16 16 16 16
26 26 25 23 26 28 28 27 26 24 24 23 23 22 21 19 18 19 17 16 15 12 15 18 18 17 16 17 17 18 20 20 16 17 18 19 19 19 18 16 16 15 16 15
28 26 24 22 26 25 26 27 26 24 23 22 21 21 21 20 19 18 17 18 16 14 15 15 16 15 14 15 15 16 19 19 17 16 17 18 17 17 16 15 14 17 17 16

GFSCGP_sfc_dewp_123.txt.gz
Dewpoint
35 34 31 31 32 26 26 25 25 28 29 30 29 28 27 30 39 39 40 41 41 39 38 37 37 37 37 37 37 37 37 39 39 40 41 43 43 45 44 44 46 47 48 50
32 32 34 32 32 30 30 29 28 29 30 29 27 27 32 38 40 39 38 38 38 37 36 35 35 35 36 37 37 37 36 37 37 39 40 41 42 43 43 43 44 44 46 48
30 27 34 32 31 30 30 30 29 29 30 29 28 25 32 35 38 38 38 38 37 37 36 35 34 34 34 35 35 36 36 36 37 38 38 39 40 40 40 41 41 43 44 45
33 34 32 33 31 31 29 31 31 30 27 24 28 22 28 33 34 37 37 37 37 36 36 36 35 35 35 35 36 35 35 35 37 37 37 38 36 36 38 39 40 41 43 44
27 30 31 31 30 32 28 30 29 29 28 29 27 26 28 30 30 35 35 36 36 37 38 37 37 36 35 35 36 35 36 35 36 37 38 37 35 36 37 38 39 39 41 41
28 32 30 30 32 30 32 31 30 31 29 25 25 24 24 27 29 33 35 35 36 37 36 36 35 36 36 36 34 35 34 34 35 36 37 37 36 35 35 35 36 36 37 38
30 30 32 32 31 33 31 30 23 23 23 20 25 25 24 31 33 34 34 35 36 36 35 35 35 34 35 35 35 35 34 34 34 35 34 34 35 35 34 33 34 34 34 35
26 20 29 32 29 28 30 27 22 17 19 18 25 23 25 33 34 34 35 36 36 35 35 34 34 34 34 33 33 33 33 33 33 35 34 34 34 34 33 33 33 33 33 34
26 24 32 34 33 30 31 29 30 28 27 25 22 24 31 34 33 35 36 36 34 34 34 34 33 33 32 32 32 32 32 32 32 33 33 33 33 33 33 33 33 33 33 33
28 23 29 32 32 32 31 31 30 32 22 18 19 21 26 32 33 35 36 36 35 34 32 31 31 31 32 31 32 32 32 32 32 32 32 33 32 32 32 32 31 31 32 32
30 27 27 33 32 30 30 29 29 29 29 20 15 23 33 34 33 33 34 35 35 33 31 29 30 30 31 31 31 31 31 32 32 32 32 31 31 32 31 30 30 30 31 31
32 31 27 27 33 32 31 30 30 28 26 28 26 24 33 34 34 34 33 34 33 31 28 27 27 28 28 28 29 30 30 31 31 31 31 31 31 30 30 30 29 29 29 30
36 33 27 28 32 33 32 32 32 33 31 27 25 21 34 34 34 34 34 32 30 27 26 25 26 26 27 28 29 29 30 30 30 30 29 30 29 29 28 28 28 28 28 28
38 34 29 23 26 30 31 32 32 33 29 27 25 24 32 33 34 34 33 30 27 26 25 25 26 26 26 27 28 28 28 29 28 27 26 26 27 27 27 27 27 27 27 27
37 29 30 29 28 29 28 27 29 30 30 27 24 26 29 34 35 35 30 27 26 25 24 25 25 25 26 26 26 26 27 26 26 25 25 25 25 24 25 25 25 25 26 26
35 29 30 27 30 30 29 29 29 29 30 31 31 32 34 35 36 29 28 26 25 25 24 24 25 24 26 26 26 26 27 26 25 24 23 23 23 22 23 23 24 23 23 24
33 31 29 24 27 30 27 28 28 28 29 29 28 30 32 31 30 29 28 26 25 25 24 24 25 27 27 28 27 27 26 25 24 23 23 23 23 23 23 23 23 23 24 24
33 32 31 25 27 21 20 27 28 29 29 29 29 31 31 31 31 29 28 26 25 25 25 26 27 27 28 29 30 30 26 24 24 23 23 22 22 23 23 23 23 23 24 24
33 31 27 25 23 23 22 25 28 28 27 30 29 30 29 29 28 28 27 27 26 26 28 28 27 27 28 29 29 28 27 24 22 23 23 23 22 22 22 22 23 23 23 23
33 32 28 26 21 17 26 26 28 26 23 29 31 29 28 28 26 26 27 27 27 28 27 26 26 27 26 27 27 26 26 24 24 24 23 23 21 22 21 22 23 24 22 21
28 29 26 24 22 23 26 27 24 22 28 30 31 30 28 30 28 28 27 26 26 26 26 26 25 24 25 26 26 25 25 24 25 25 24 23 22 21 21 22 23 23 21 19
25 25 24 25 23 19 28 25 22 31 28 30 30 29 27 26 26 25 25 25 25 25 25 25 24 24 25 23 22 24 24 26 26 25 25 24 22 21 21 21 21 21 20 18
26 30 26 25 26 27 29 29 28 28 28 29 30 28 27 26 24 25 25 24 23 24 24 23 22 21 21 21 21 21 23 23 24 23 24 23 21 21 20 19 20 19 19 17
26 26 26 25 26 26 29 28 27 27 27 27 28 27 27 25 25 24 23 22 22 23 22 20 19 19 19 20 20 21 20 19 19 17 18 19 18 17 17 15 15 15 16 16
25 26 25 25 26 28 28 28 27 26 26 27 27 27 25 24 23 22 21 21 21 21 21 19 18 18 18 18 18 19 19 16 15 16 16 16 16 15 14 17 16 14 17 15
28 28 26 26 27 27 28 29 26 25 25 25 24 23 23 23 22 22 21 20 19 20 20 19 18 17 16 15 17 18 18 16 15 14 15 16 14 14 12 11 12 16 15 15

GFSCGP_sfc_dewp_126.txt.gz
Dewpoint
35 27 21 18 25 21 19 17 14 16 22 26 22 22 23 28 35 37 38 39 39 38 38 37 38 38 39 40 40 39 39 39 39 41 41 43 44 47 46 45 48 48 50 52
32 25 21 30 29 27 24 21 19 19 26 28 21 23 28 35 37 38 37 37 38 38 37 37 37 37 38 38 39 38 38 39 38 38 39 41 43 44 45 44 46 46 47 49
16 21 30 30 27 25 24 23 19 21 25 25 26 20 32 35 37 37 38 38 38 37 37 37 36 37 38 38 39 38 38 38 39 40 39 39 41 41 41 41 42 44 45 46
24 23 27 27 23 25 18 23 25 25 23 18 26 13 25 30 34 35 36 37 37 37 36 36 37 37 38 38 38 39 38 38 38 40 39 41 39 38 39 40 41 41 43 43
22 30 28 26 23 28 19 28 27 26 26 25 21 22 19 29 29 33 34 36 37 38 38 37 37 36 36 36 36 37 38 37 38 39 39 39 39 38 38 38 40 40 40 41
22 30 27 24 30 30 29 29 29 29 26 22 17 19 12 25 26 31 34 36 36 36 36 36 36 36 36 37 37 37 37 36 37 36 37 38 38 37 37 37 36 36 37 38
25 27 28 30 27 31 29 27 23 18 21 13 23 21 19 27 30 32 34 35 37 37 36 35 35 35 36 36 36 36 36 35 36 36 35 36 35 36 36 36 35 35 34 35
23 22 26 29 24 23 28 26 18 11 10 13 22 21 25 31 33 35 35 36 37 37 36 36 35 35 34 34 34 34 34 34 35 35 35 35 34 34 34 34 34 35 35 34
20 15 27 30 28 27 29 28 25 23 23 25 16 18 32 34 35 35 36 36 36 36 35 35 35 33 33 33 33 33 33 32 33 34 34 34 34 34 33 33 33 33 34 33
23 16 26 32 31 30 30 29 29 30 20 17 13 16 25 34 36 35 37 37 36 36 35 34 33 32 32 32 32 33 32 32 32 33 33 32 32 32 33 32 32 32 32 32
24 23 26 32 30 24 30 30 30 28 26 19 15 22 37 41 36 36 37 37 37 36 34 33 32 31 31 31 32 32 32 32 33 33 32 32 32 32 32 32 31 31 32 32
30 28 22 25 25 28 26 25 28 29 28 31 29 25 31 31 34 34 34 35 36 35 33 29 28 28 29 29 30 30 31 32 32 32 32 32 31 31 31 31 30 31 31 31
34 33 26 23 28 31 28 27 27 29 29 28 26 22 32 32 32 33 34 35 35 32 29 28 27 28 28 28 29 29 30 30 30 30 30 30 30 30 29 29 30 30 30 30
37 29 27 20 23 31 34 32 31 31 32 27 24 21 23 32 32 34 35 35 33 30 28 27 26 27 27 28 28 28 30 30 29 28 28 28 28 28 27 27 27 28 28 27
31 25 23 22 23 24 28 27 25 27 29 28 25 22 21 24 32 35 36 35 31 29 27 27 26 26 26 27 27 28 29 28 28 27 27 27 26 25 26 26 26 26 27 26
34 25 23 21 20 20 19 21 21 21 22 24 24 25 26 28 33 35 35 33 30 28 26 26 25 26 26 26 26 27 27 25 25 24 24 24 25 24 25 25 26 26 25 25
32 29 26 21 21 25 25 24 22 22 22 24 23 24 23 27 34 37 37 32 30 29 28 26 26 26 27 27 27 28 26 24 23 23 23 24 25 25 25 24 24 25 26 25
30 30 29 24 25 22 20 22 23 22 24 25 26 25 27 29 35 38 36 33 31 29 27 27 28 27 28 28 29 27 25 24 23 23 23 23 23 25 25 25 25 26 28 26
30 29 27 24 19 17 17 22 31 32 25 26 28 28 29 33 34 33 33 33 32 30 30 32 29 28 30 29 28 27 25 23 21 23 24 24 24 24 24 24 25 26 26 26
28 30 28 23 20 16 27 19 27 29 26 24 28 28 33 32 31 33 32 32 33 33 30 29 30 31 29 30 29 27 26 24 25 24 24 22 23 23 23 25 25 25 26 25
28 29 26 25 23 22 26 26 27 25 26 29 32 35 33 33 34 35 34 32 32 29 28 28 28 28 28 29 29 27 26 25 26 25 24 23 22 23 24 25 26 25 24 24
21 23 26 27 25 22 29 27 23 34 32 33 36 36 36 32 30 31 30 29 29 28 27 26 27 27 25 24 24 25 25 27 26 25 24 23 23 23 23 24 25 24 24 22
26 32 28 27 27 31 29 32 33 31 31 34 35 35 33 29 28 29 28 27 27 27 26 26 25 23 22 20 20 21 23 24 24 24 23 23 22 23 21 22 23 22 23 21
27 29 30 27 29 28 32 31 30 30 31 34 33 32 31 28 28 27 27 26 26 26 24 23 22 21 21 20 19 19 19 18 17 17 17 17 16 17 17 15 15 16 18 19
26 28 27 31 30 29 29 32 32 30 31 32 31 31 29 28 27 26 25 25 25 26 25 22 21 21 20 18 18 18 16 15 14 14 14 14 14 14 15 16 16 15 18 15
30 33 30 28 29 30 32 33 32 30 31 31 30 28 28 27 26 26 25 25 24 24 24 22 21 20 18 17 18 17 16 14 13 12 13 14 13 13 10 10 13 14 14 13

GFSCGP_sfc_dewp_129.txt.gz
Dewpoint
29 26 22 20 22 19 16 15 10 10 11 18 22 20 16 19 26 31 34 37 37 38 38 39 40 40 40 41 41 40 42 43 42 40 41 44 44 47 48 48 49 49 50 51
28 25 20 17 22 21 21 17 14 15 16 22 21 17 17 24 30 34 34 36 37 38 38 38 39 40 41 41 41 40 40 41 42 41 42 42 44 44 44 45 46 47 47 48
24 18 21 18 24 22 19 17 17 16 17 20 20 18 20 30 35 36 36 36 37 37 37 37 38 40 41 40 41 40 40 40 42 43 41 42 42 42 41 42 43 44 45 46
22 20 20 19 21 20 18 16 21 19 17 15 23 18 18 28 33 34 34 36 37 37 36 37 38 38 38 39 40 40 40 39 40 42 41 42 40 40 41 41 41 42 44 44
17 20 20 21 18 18 19 24 22 20 20 20 17 16 16 18 29 31 33 35 37 38 38 37 37 37 37 39 39 40 39 39 39 39 40 38 39 38 39 40 41 41 42 42
21 24 25 22 22 23 24 25 24 24 22 21 18 15 12 14 25 26 31 35 37 37 37 37 37 37 37 38 38 39 38 37 38 38 38 38 38 37 36 36 37 38 38 39
26 24 23 24 25 26 26 24 22 20 21 20 19 16 15 24 25 25 32 34 37 37 37 37 36 36 36 36 37 36 36 35 37 37 37 37 36 37 36 35 35 35 37 36
21 18 22 26 22 24 25 23 18 11 12 9 20 19 21 27 30 33 33 35 38 38 38 37 36 35 34 34 35 35 35 34 35 35 35 35 35 34 34 34 34 34 34 35
20 18 22 24 24 20 22 25 21 21 20 20 16 15 29 32 34 35 35 36 38 38 38 37 36 35 33 33 34 35 34 33 34 34 35 34 33 34 33 33 34 33 34 33
20 17 21 26 25 25 22 24 25 27 17 15 12 15 23 34 37 35 36 38 38 37 37 36 35 33 33 33 33 34 34 33 33 34 33 33 33 33 33 33 32 33 33 33
22 19 22 29 26 17 22 26 26 25 23 17 14 22 32 37 35 37 36 38 38 37 36 36 34 31 32 32 32 33 33 33 33 33 33 33 33 33 32 32 32 32 33 32
25 23 16 22 22 22 20 24 24 30 24 29 27 27 27 30 31 33 34 35 38 38 36 34 31 30 30 31 31 31 32 32 32 32 32 33 33 32 32 31 31 33 33 32
28 30 23 18 17 25 26 22 27 27 28 26 25 25 30 28 26 29 31 34 37 37 35 32 30 29 29 30 30 30 31 31 31 31 31 31 31 29 29 29 29 29 29 29
36 29 21 16 19 30 32 27 24 24 30 29 28 25 24 31 30 30 32 35 36 36 34 31 30 29 28 29 29 30 31 31 30 30 30 29 28 27 27 27 28 28 27 26
34 27 22 21 21 30 31 31 29 29 29 33 29 26 28 28 27 34 33 35 35 34 32 31 29 28 28 28 29 29 29 30 29 29 29 28 27 27 27 28 27 27 27 26
32 30 28 26 26 19 17 16 18 18 22 26 26 27 28 25 23 24 34 35 34 33 31 30 28 27 27 27 28 28 28 27 26 25 25 26 26 25 26 26 26 26 25 24
29 29 26 24 21 20 20 17 17 16 14 16 18 19 19 19 20 28 33 36 34 33 31 29 28 28 28 28 28 28 27 25 23 23 23 24 26 25 26 25 25 25 25 24
35 34 32 28 24 22 22 20 18 19 18 20 19 20 20 20 25 31 33 37 36 33 31 31 31 29 29 29 28 28 26 25 23 23 23 23 24 24 25 25 26 27 28 27
28 28 27 24 19 17 14 16 31 28 23 24 22 20 20 22 32 38 38 38 37 34 35 35 32 30 31 30 29 27 24 23 21 23 24 24 24 25 25 25 26 27 27 27
23 27 27 24 20 17 26 17 20 26 26 25 24 24 24 34 35 36 37 37 37 36 35 35 35 33 31 33 29 26 24 24 25 24 23 22 24 24 25 26 25 28 28 27
26 26 25 25 22 21 20 17 24 24 26 29 28 28 29 37 37 39 38 35 34 34 34 32 30 31 31 32 33 30 28 26 25 24 23 23 22 25 26 26 28 28 27 27
24 22 22 24 23 21 20 22 26 34 33 32 33 35 38 36 36 34 32 32 32 32 32 29 29 29 28 26 25 26 26 28 26 24 24 25 24 22 24 26 27 27 28 25
24 30 27 24 26 36 31 31 33 32 31 34 35 37 36 33 32 31 31 31 31 31 29 27 26 25 23 21 21 21 23 24 24 23 24 24 23 24 21 22 24 23 26 23
21 23 29 27 26 27 32 31 32 32 31 34 35 36 35 32 31 30 30 30 30 31 26 24 24 22 21 20 19 21 20 19 19 19 18 17 17 17 17 16 16 16 18 19
28 27 26 28 28 30 30 32 33 31 31 33 33 33 31 31 31 28 28 29 30 31 28 24 23 22 21 18 18 17 16 14 14 14 14 14 15 15 15 15 17 15 17 15
25 31 30 28 32 35 34 33 33 33 32 33 32 31 31 29 28 28 28 27 27 28 27 25 24 22 19 17 17 15 15 14 13 13 13 14 13 12 11 12 14 14 13 12

GFSCGP_sfc_dewp_132.txt.gz
Dewpoint
27 24 21 20 23 20 13 15 14 12 13 18 18 17 19 21 16 26 31 34 37 37 38 39 40 42 42 43 42 42 43 44 44 44 43 44 45 48 46 46 46 48 48 48
22 24 22 20 19 19 18 17 17 15 11 13 16 17 19 18 17 26 30 37 37 37 37 38 39 41 42 42 43 42 41 43 43 42 43 45 46 47 47 46 46 46 46 47
19 21 22 20 17 18 20 20 18 14 13 17 20 18 18 18 21 34 34 35 36 36 36 37 39 40 40 40 41 40 41 41 42 42 42 42 44 45 44 44 44 45 45 45
19 18 19 19 17 16 20 18 15 14 17 15 15 16 16 25 28 33 34 35 36 36 36 37 37 38 39 40 41 40 40 40 40 42 40 41 39 38 40 41 41 43 44 43
19 16 18 19 17 16 18 19 19 18 20 18 15 14 14 16 29 32 33 35 37 38 37 37 37 37 38 39 40 41 40 39 39 39 39 39 39 38 38 38 39 39 40 41
19 16 17 18 19 18 17 23 22 21 19 21 17 15 14 14 23 31 32 35 37 38 37 37 37 38 37 38 39 39 38 37 38 37 37 37 37 36 36 35 35 36 37 37
18 17 20 23 21 21 21 25 22 18 19 18 17 17 19 22 28 30 33 36 38 38 37 37 37 35 35 36 37 37 36 35 36 36 35 35 35 35 34 34 34 34 35 34
18 17 20 23 22 22 23 24 19 14 17 15 14 19 18 26 29 33 34 37 39 39 39 38 36 35 34 35 35 35 35 34 34 35 34 34 34 34 34 34 34 33 34 34
17 16 18 22 22 22 23 22 22 22 23 22 17 17 26 32 34 34 35 38 39 39 39 38 37 35 33 33 34 35 34 33 34 34 34 34 34 33 34 34 33 34 34 32
19 19 19 19 22 23 21 24 26 29 19 16 14 15 22 32 35 35 36 39 40 39 38 37 36 34 33 34 34 35 34 33 33 34 34 34 33 33 34 33 33 33 33 33
22 26 22 24 23 21 20 21 24 26 25 17 15 26 36 37 36 35 37 38 40 38 37 36 35 33 33 33 33 34 34 33 33 34 33 34 34 33 32 32 32 33 33 32
25 25 21 20 24 21 18 20 23 28 25 29 28 26 35 37 34 33 33 36 39 37 37 36 35 32 32 32 32 32 33 33 33 33 33 33 32 32 32 32 31 33 32 32
29 31 25 18 23 23 21 20 22 27 29 26 25 23 27 26 29 31 32 34 39 37 36 35 32 31 30 31 31 31 32 31 32 32 33 32 31 30 30 30 30 29 28 28
38 29 26 21 19 24 27 24 27 29 29 28 26 27 28 30 32 35 35 37 38 37 36 35 32 31 30 30 31 31 32 32 31 31 30 30 30 29 29 29 29 28 27 26
33 28 25 21 18 19 26 29 32 32 34 32 30 28 28 31 36 37 37 34 37 36 35 34 32 30 29 30 30 30 31 32 31 30 30 30 29 28 28 28 28 28 27 25
31 26 25 23 23 24 26 34 31 29 29 29 30 27 31 30 29 36 36 35 36 35 35 33 31 29 28 28 29 29 29 29 28 26 27 27 27 26 27 27 27 26 25 24
29 29 25 22 22 26 25 28 26 25 21 19 18 21 21 21 23 26 35 36 36 35 34 32 31 29 28 29 30 30 29 26 25 25 25 25 26 26 26 26 26 26 25 24
32 33 32 26 25 21 24 24 23 21 20 20 19 19 20 23 29 36 36 39 38 35 34 33 31 31 31 31 30 30 26 25 24 24 23 23 25 26 26 26 27 27 27 25
29 29 28 27 26 24 20 18 23 28 25 26 26 26 23 24 28 39 40 41 39 36 36 34 33 34 34 32 31 29 26 25 22 23 24 24 25 25 25 24 25 26 27 26
27 30 29 29 23 20 26 20 18 26 26 28 28 28 27 27 33 39 39 38 37 36 35 35 34 34 33 33 31 28 26 24 26 24 25 24 25 25 22 25 24 27 27 26
25 26 24 24 22 23 23 19 21 20 25 31 32 36 35 38 39 38 37 35 35 35 34 34 33 32 32 33 33 29 26 26 25 25 25 24 24 26 26 26 27 26 26 25
26 27 23 24 22 20 26 26 23 34 37 34 35 38 38 37 34 33 33 33 33 32 32 31 31 31 31 28 26 26 25 27 25 24 25 25 25 24 25 27 27 27 27 24
22 28 28 29 28 36 32 34 34 37 35 35 36 40 37 33 32 32 31 31 31 31 30 31 30 29 27 26 24 23 24 25 25 24 23 25 25 26 24 23 24 24 24 23
24 24 25 27 26 25 28 32 32 34 33 33 34 37 35 32 32 31 31 30 30 30 29 28 26 25 24 23 21 22 21 21 20 21 21 21 20 20 19 18 17 17 18 18
32 31 28 30 32 32 27 30 32 33 31 32 34 35 34 32 31 30 29 30 30 30 28 27 26 23 22 20 20 20 21 19 19 17 17 17 18 16 16 18 17 15 16 15
27 30 29 28 32 33 36 39 39 35 32 33 33 32 32 31 30 29 29 29 29 30 29 27 25 23 21 19 19 18 17 17 16 16 16 18 17 18 15 13 14 15 15 14

GFSCGP_sfc_dewp_135.txt.gz
Dewpoint
29 28 24 24 23 23 22 18 15 16 18 18 19 16 15 19 21 26 35 36 36 37 39 39 40 41 41 42 41 41 41 41 42 41 42 43 42 45 44 45 45 45 46 45
25 25 26 24 23 22 21 20 19 19 18 18 17 17 17 19 20 28 32 37 37 37 38 39 41 40 39 39 40 40 39 40 40 40 41 42 43 43 44 44 44 45 44 43
23 22 25 24 22 20 20 20 19 19 18 16 18 18 18 20 24 33 36 37 37 37 37 39 38 38 39 39 39 39 39 39 40 39 39 39 40 39 39 39 40 41 42 41
24 24 21 23 22 20 17 21 22 20 17 14 17 15 16 20 19 33 35 36 36 36 38 38 38 38 38 39 39 39 38 38 38 39 38 38 37 36 38 37 38 38 39 38
25 20 19 18 20 21 20 27 24 24 20 21 21 16 15 22 30 33 35 35 36 36 37 37 37 37 38 38 38 37 38 37 37 37 36 36 36 36 37 36 35 35 36 36
24 23 19 18 20 21 23 25 24 23 21 20 19 16 15 15 19 33 34 36 37 37 37 37 37 37 37 37 35 36 36 36 36 35 35 34 34 34 34 34 34 34 34 35
25 23 22 20 21 23 20 24 23 19 19 17 18 17 16 19 27 33 34 37 37 37 36 37 37 35 35 35 35 35 34 34 35 34 34 34 33 34 33 34 34 33 34 34
18 18 21 20 22 21 21 23 23 18 19 17 18 20 21 30 34 35 36 38 37 37 37 37 36 35 34 34 34 34 34 34 34 34 34 34 33 34 34 33 34 34 33 33
21 19 19 18 23 23 26 23 22 24 25 22 20 21 31 35 36 37 38 38 38 38 38 38 37 34 33 34 34 33 33 33 33 34 34 34 34 33 33 33 34 33 33 32
24 20 21 20 23 23 24 25 25 28 20 17 18 18 24 33 34 37 38 38 38 38 38 37 36 34 33 34 34 33 33 33 34 34 34 33 33 33 33 33 33 33 33 33
21 23 25 24 20 20 21 22 27 27 25 20 16 20 34 34 35 36 38 39 38 38 37 37 36 33 33 34 33 33 34 33 33 33 34 34 33 33 32 31 31 33 31 31
22 24 22 22 24 22 22 21 24 27 24 25 24 23 36 36 36 35 36 39 38 38 37 36 33 33 33 33 33 32 33 33 33 33 34 34 32 31 30 30 29 30 29 31
32 27 24 23 24 24 22 22 22 27 29 24 22 22 37 35 35 35 35 38 38 37 36 36 32 32 31 32 32 32 32 32 33 34 31 30 29 29 28 29 29 28 27 27
38 33 23 20 21 26 24 22 24 29 27 24 25 26 28 31 36 37 39 39 37 36 36 35 31 31 31 31 32 32 32 33 33 32 30 29 29 29 28 28 27 26 25 25
37 32 31 27 24 26 30 28 28 31 33 29 29 32 31 32 39 39 41 41 40 37 36 35 30 30 30 31 31 31 32 33 32 31 29 29 28 28 28 27 26 25 25 24
35 31 31 28 24 22 25 27 29 31 31 31 32 32 34 34 34 38 38 39 40 36 35 35 30 29 29 29 30 31 31 31 30 29 28 28 27 27 27 26 26 24 23 23
32 29 27 22 25 25 21 24 24 29 29 29 28 30 32 29 27 30 36 36 38 37 35 34 29 29 29 30 30 31 29 27 27 27 27 27 27 26 26 26 25 24 24 22
31 31 30 25 25 18 23 25 23 25 26 29 26 23 24 22 33 39 37 37 37 36 36 32 30 30 30 31 31 29 26 26 26 25 26 26 26 25 25 25 24 22 23 19
30 31 26 21 22 23 21 27 26 26 27 30 29 29 29 29 37 38 40 39 38 37 36 34 32 31 31 31 31 28 25 25 24 24 25 25 25 24 23 17 16 18 23 20
26 29 25 23 20 17 25 25 24 28 22 29 29 31 33 32 27 32 37 37 35 34 33 32 32 33 33 33 32 27 25 24 24 24 25 25 25 20 13 13 15 18 20 23
25 25 24 23 23 26 29 26 25 21 21 29 33 36 36 33 35 35 34 34 33 33 33 32 32 32 32 32 29 27 25 24 25 26 25 24 24 24 22 20 19 18 18 24
26 27 25 25 24 20 30 29 25 31 34 33 34 37 34 33 33 32 33 32 33 32 32 32 31 32 33 29 26 24 24 26 25 25 24 23 24 25 25 22 23 24 20 20
19 26 25 28 26 31 32 30 32 35 34 33 37 36 34 32 32 32 31 31 31 31 31 30 31 31 32 29 24 23 26 24 24 23 18 22 25 25 23 22 20 20 20 19
27 33 25 25 27 28 30 32 33 34 33 35 38 34 33 32 32 31 31 30 30 30 29 29 29 29 29 25 24 25 24 23 22 22 22 22 22 21 17 17 17 16 17 17
29 32 31 31 32 32 33 35 38 38 34 36 36 34 33 32 31 30 30 30 29 29 29 29 28 27 26 24 23 23 24 22 21 22 20 18 18 18 17 15 15 15 15 16
28 27 27 28 34 34 34 39 39 36 34 35 34 32 32 31 30 30 29 29 29 28 28 28 27 25 23 22 22 22 22 22 20 17 17 18 15 16 14 15 15 16 16 16